Observation data for Tarzan on 09/10/2019      Previous  Date       Current Mesonet Observations  Soil Data  Daily Summary Page  Observations in Plain Language
KTA1 100500Z 19002KT 21/18 A3001 RMK A01 T02110181  RH  083%=      5-min Rain = 0
KTA1 100501Z 19002KT 21/18 A3001 RMK A01 T02110181  RH  083%=      5-min Rain = 0
KTA1 100502Z 19003KT 21/18 A3001 RMK A01 T02110182  RH  083%=      5-min Rain = 0
KTA1 100503Z 18003KT 21/18 A3001 RMK A01 T02100181  RH  084%=      5-min Rain = 0
KTA1 100504Z 18003KT 21/18 A3001 RMK A01 T02100181  RH  084%=      5-min Rain = 0
KTA1 100505Z 18003KT 21/18 A3001 RMK A01 T02090181  RH  084%=      5-min Rain = 0
KTA1 100506Z 18003KT 21/18 A3001 RMK A01 T02090182  RH  084%=      5-min Rain = 0
KTA1 100507Z 18003KT 21/18 A3001 RMK A01 T02090182  RH  084%=      5-min Rain = 0
KTA1 100508Z 18003KT 21/18 A3001 RMK A01 T02090182  RH  085%=      5-min Rain = 0
KTA1 100509Z 17004KT 21/18 A3001 RMK A01 T02090182  RH  085%=      5-min Rain = 0
KTA1 100510Z 17004KT 21/18 A3001 RMK A01 T02090182  RH  085%=      5-min Rain = 0
KTA1 100511Z 17004KT 21/18 A3001 RMK A01 T02080182  RH  085%=      5-min Rain = 0
KTA1 100512Z 17004KT 21/18 A3001 RMK A01 T02080181  RH  085%=      5-min Rain = 0
KTA1 100513Z 17004KT 21/18 A3001 RMK A01 T02080181  RH  084%=      5-min Rain = 0
KTA1 100514Z 17004KT 21/18 A3001 RMK A01 T02080181  RH  084%=      5-min Rain = 0
KTA1 100515Z 16004KT 21/18 A3002 RMK A01 T02090181  RH  084%=      5-min Rain = 0
KTA1 100516Z 16005KT 21/18 A3002 RMK A01 T02080180  RH  084%=      5-min Rain = 0
KTA1 100517Z 16005KT 21/18 A3002 RMK A01 T02080180  RH  084%=      5-min Rain = 0
KTA1 100518Z 16005KT 21/18 A3002 RMK A01 T02090181  RH  084%=      5-min Rain = 0
KTA1 100519Z 17004KT 21/18 A3002 RMK A01 T02090181  RH  084%=      5-min Rain = 0
KTA1 100520Z 17004KT 21/18 A3002 RMK A01 T02090181  RH  084%=      5-min Rain = 0
KTA1 100521Z 17004KT 21/18 A3002 RMK A01 T02090181  RH  084%=      5-min Rain = 0
KTA1 100522Z 16004KT 21/18 A3002 RMK A01 T02090181  RH  084%=      5-min Rain = 0
KTA1 100523Z 17004KT 21/18 A3002 RMK A01 T02090181  RH  084%=      5-min Rain = 0
KTA1 100524Z 17003KT 21/18 A3002 RMK A01 T02090181  RH  084%=      5-min Rain = 0
KTA1 100525Z 18004KT 21/18 A3001 RMK A01 T02090182  RH  084%=      5-min Rain = 0
KTA1 100526Z 19003KT 21/18 A3002 RMK A01 T02090182  RH  084%=      5-min Rain = 0
KTA1 100527Z 19003KT 21/18 A3001 RMK A01 T02090182  RH  084%=      5-min Rain = 0
KTA1 100528Z 19003KT 21/18 A3001 RMK A01 T02100182  RH  084%=      5-min Rain = 0
KTA1 100529Z 19004KT 21/18 A3001 RMK A01 T02100181  RH  084%=      5-min Rain = 0
KTA1 100530Z 19003KT 21/18 A3001 RMK A01 T02110182  RH  084%=      5-min Rain = 0
KTA1 100531Z 19003KT 21/18 A3001 RMK A01 T02100182  RH  084%=      5-min Rain = 0
KTA1 100532Z 19003KT 21/18 A3001 RMK A01 T02110182  RH  084%=      5-min Rain = 0
KTA1 100533Z 20003KT 21/18 A3001 RMK A01 T02110182  RH  084%=      5-min Rain = 0
KTA1 100534Z 20003KT 21/18 A3001 RMK A01 T02110183  RH  084%=      5-min Rain = 0
KTA1 100535Z 19003KT 21/18 A3001 RMK A01 T02110183  RH  084%=      5-min Rain = 0
KTA1 100536Z 18003KT 21/18 A3001 RMK A01 T02100183  RH  084%=      5-min Rain = 0
KTA1 100537Z 17003KT 21/18 A3001 RMK A01 T02100183  RH  085%=      5-min Rain = 0
KTA1 100538Z 17003KT 21/18 A3001 RMK A01 T02090183  RH  085%=      5-min Rain = 0
KTA1 100539Z 16003KT 21/18 A3001 RMK A01 T02100184  RH  085%=      5-min Rain = 0
KTA1 100540Z 16003KT 21/18 A3001 RMK A01 T02090183  RH  085%=      5-min Rain = 0
KTA1 100541Z 16003KT 21/18 A3001 RMK A01 T02090183  RH  085%=      5-min Rain = 0
KTA1 100542Z 16002KT 21/18 A3001 RMK A01 T02080183  RH  085%=      5-min Rain = 0
KTA1 100543Z 16002KT 21/18 A3001 RMK A01 T02080183  RH  086%=      5-min Rain = 0
KTA1 100544Z 15003KT 21/18 A3001 RMK A01 T02080184  RH  086%=      5-min Rain = 0
KTA1 100545Z 15003KT 21/18 A3001 RMK A01 T02080183  RH  086%=      5-min Rain = 0
KTA1 100546Z 14003KT 21/18 A3001 RMK A01 T02080184  RH  086%=      5-min Rain = 0
KTA1 100547Z 14003KT 21/19 A3001 RMK A01 T02080185  RH  086%=      5-min Rain = 0
KTA1 100548Z 14004KT 21/19 A3001 RMK A01 T02080185  RH  086%=      5-min Rain = 0
KTA1 100549Z 14004KT 21/18 A3001 RMK A01 T02080184  RH  086%=      5-min Rain = 0
KTA1 100550Z 13004KT 21/18 A3001 RMK A01 T02080184  RH  086%=      5-min Rain = 0
KTA1 100551Z 12003KT 21/19 A3001 RMK A01 T02080185  RH  087%=      5-min Rain = 0
KTA1 100552Z 13003KT 21/19 A3001 RMK A01 T02080186  RH  087%=      5-min Rain = 0
KTA1 100553Z 12003KT 21/19 A3001 RMK A01 T02080185  RH  087%=      5-min Rain = 0
KTA1 100554Z 12003KT 21/19 A3001 RMK A01 T02080186  RH  087%=      5-min Rain = 0
KTA1 100555Z 12003KT 21/19 A3001 RMK A01 T02080186  RH  087%=      5-min Rain = 0
KTA1 100556Z 11002KT 21/19 A3001 RMK A01 T02080187  RH  088%=      5-min Rain = 0
KTA1 100557Z 11002KT 21/19 A3001 RMK A01 T02070187  RH  088%=      5-min Rain = 0
KTA1 100558Z 11003KT 21/19 A3001 RMK A01 T02070187  RH  088%=      5-min Rain = 0
KTA1 100559Z 12003KT 21/19 A3001 RMK A01 T02080187  RH  088%=      5-min Rain = 0
KTA1 100600Z 12003KT 21/19 A3001 RMK A01 T02070187  RH  088%=      5-min Rain = 0
KTA1 100601Z 12002KT 21/19 A3001 RMK A01 T02070188  RH  089%=      5-min Rain = 0
KTA1 100602Z 13002KT 21/19 A3001 RMK A01 T02070188  RH  089%=      5-min Rain = 0
KTA1 100603Z 13003KT 21/19 A3001 RMK A01 T02070188  RH  089%=      5-min Rain = 0
KTA1 100604Z 12003KT 21/19 A3001 RMK A01 T02070188  RH  089%=      5-min Rain = 0
KTA1 100605Z 12003KT 21/19 A3001 RMK A01 T02070188  RH  089%=      5-min Rain = 0
KTA1 100606Z 12002KT 21/19 A3001 RMK A01 T02070188  RH  089%=      5-min Rain = 0
KTA1 100607Z 12002KT 21/19 A3001 RMK A01 T02070189  RH  089%=      5-min Rain = 0
KTA1 100608Z 12002KT 21/19 A3001 RMK A01 T02070188  RH  089%=      5-min Rain = 0
KTA1 100609Z 12002KT 21/19 A3001 RMK A01 T02070189  RH  089%=      5-min Rain = 0
KTA1 100610Z 11003KT 21/19 A3001 RMK A01 T02070189  RH  089%=      5-min Rain = 0
KTA1 100611Z 11003KT 21/19 A3001 RMK A01 T02070188  RH  089%=      5-min Rain = 0
KTA1 100612Z 11002KT 21/19 A3001 RMK A01 T02070188  RH  089%=      5-min Rain = 0
KTA1 100613Z 12002KT 21/19 A3001 RMK A01 T02070188  RH  089%=      5-min Rain = 0
KTA1 100614Z 11002KT 21/19 A3001 RMK A01 T02070188  RH  089%=      5-min Rain = 0
KTA1 100615Z 11002KT 21/19 A3001 RMK A01 T02070188  RH  089%=      5-min Rain = 0
KTA1 100616Z 11002KT 21/19 A3001 RMK A01 T02070188  RH  089%=      5-min Rain = 0
KTA1 100617Z 11002KT 21/19 A3001 RMK A01 T02070189  RH  089%=      5-min Rain = 0
KTA1 100618Z 11001KT 21/19 A3001 RMK A01 T02070189  RH  089%=      5-min Rain = 0
KTA1 100619Z 13001KT 21/19 A3001 RMK A01 T02070188  RH  089%=      5-min Rain = 0
KTA1 100620Z 13000KT 21/19 A3001 RMK A01 T02070188  RH  089%=      5-min Rain = 0
KTA1 100621Z 00000KT 21/19 A3002 RMK A01 T02070188  RH  089%=      5-min Rain = 0
KTA1 100622Z 00000KT 21/19 A3002 RMK A01 T02070189  RH  089%=      5-min Rain = 0
KTA1 100623Z 00000KT 21/19 A3002 RMK A01 T02070189  RH  090%=      5-min Rain = 0
KTA1 100624Z 00000KT 21/19 A3002 RMK A01 T02070190  RH  090%=      5-min Rain = 0
KTA1 100625Z 00000KT 21/19 A3002 RMK A01 T02070190  RH  090%=      5-min Rain = 0
KTA1 100626Z 00000KT 21/19 A3002 RMK A01 T02080191  RH  090%=      5-min Rain = 0
KTA1 100627Z 00000KT 21/19 A3002 RMK A01 T02080191  RH  090%=      5-min Rain = 0
KTA1 100628Z 00000KT 21/19 A3002 RMK A01 T02080191  RH  090%=      5-min Rain = 0
KTA1 100629Z 00000KT 21/19 A3002 RMK A01 T02080191  RH  090%=      5-min Rain = 0
KTA1 100630Z 00000KT 21/19 A3002 RMK A01 T02080192  RH  090%=      5-min Rain = 0
KTA1 100631Z 00000KT 21/19 A3002 RMK A01 T02080192  RH  091%=      5-min Rain = 0
KTA1 100632Z 00000KT 21/19 A3002 RMK A01 T02080192  RH  091%=      5-min Rain = 0
KTA1 100633Z 00000KT 21/19 A3002 RMK A01 T02080192  RH  091%=      5-min Rain = 0
KTA1 100634Z 00000KT 21/19 A3002 RMK A01 T02080192  RH  091%=      5-min Rain = 0
KTA1 100635Z 00000KT 21/19 A3002 RMK A01 T02070192  RH  091%=      5-min Rain = 0
KTA1 100636Z 00000KT 21/19 A3002 RMK A01 T02070193  RH  091%=      5-min Rain = 0
KTA1 100637Z 00000KT 21/19 A3002 RMK A01 T02070193  RH  092%=      5-min Rain = 0
KTA1 100638Z 00000KT 21/19 A3002 RMK A01 T02070193  RH  092%=      5-min Rain = 0
KTA1 100639Z 00000KT 21/19 A3002 RMK A01 T02070193  RH  092%=      5-min Rain = 0
KTA1 100640Z 00000KT 21/19 A3002 RMK A01 T02070193  RH  092%=      5-min Rain = 0
KTA1 100641Z 00000KT 21/19 A3002 RMK A01 T02070193  RH  092%=      5-min Rain = 0
KTA1 100642Z 00000KT 21/19 A3002 RMK A01 T02060193  RH  092%=      5-min Rain = 0
KTA1 100643Z 00000KT 21/19 A3002 RMK A01 T02060193  RH  092%=      5-min Rain = 0
KTA1 100644Z 00000KT 21/19 A3002 RMK A01 T02060192  RH  092%=      5-min Rain = 0
KTA1 100645Z 00000KT 21/19 A3002 RMK A01 T02050192  RH  092%=      5-min Rain = 0
KTA1 100646Z 00000KT 21/19 A3002 RMK A01 T02060191  RH  091%=      5-min Rain = 0
KTA1 100647Z 00000KT 21/19 A3002 RMK A01 T02050191  RH  091%=      5-min Rain = 0
KTA1 100648Z 00000KT 21/19 A3002 RMK A01 T02050191  RH  091%=      5-min Rain = 0
KTA1 100649Z 00000KT 21/19 A3002 RMK A01 T02050191  RH  091%=      5-min Rain = 0
KTA1 100650Z 00000KT 21/19 A3002 RMK A01 T02060191  RH  091%=      5-min Rain = 0
KTA1 100651Z 00000KT 21/19 A3002 RMK A01 T02060191  RH  091%=      5-min Rain = 0
KTA1 100652Z 00000KT 21/19 A3002 RMK A01 T02060191  RH  091%=      5-min Rain = 0
KTA1 100653Z 00000KT 21/19 A3002 RMK A01 T02060191  RH  091%=      5-min Rain = 0
KTA1 100654Z 00000KT 21/19 A3001 RMK A01 T02060191  RH  091%=      5-min Rain = 0
KTA1 100655Z 00000KT 21/19 A3001 RMK A01 T02060192  RH  091%=      5-min Rain = 0
KTA1 100656Z 00000KT 21/19 A3001 RMK A01 T02060190  RH  090%=      5-min Rain = 0
KTA1 100657Z 00000KT 21/19 A3001 RMK A01 T02060191  RH  091%=      5-min Rain = 0
KTA1 100658Z 00000KT 21/19 A3001 RMK A01 T02070191  RH  091%=      5-min Rain = 0
KTA1 100659Z 00000KT 21/19 A3001 RMK A01 T02070191  RH  090%=      5-min Rain = 0
KTA1 100700Z 00000KT 21/19 A3001 RMK A01 T02070190  RH  090%=      5-min Rain = 0
KTA1 100701Z 00000KT 21/19 A3001 RMK A01 T02070189  RH  090%=      5-min Rain = 0
KTA1 100702Z 00000KT 21/19 A3001 RMK A01 T02070191  RH  090%=      5-min Rain = 0
KTA1 100703Z 10002KT 21/19 A3001 RMK A01 T02070191  RH  090%=      5-min Rain = 0
KTA1 100704Z 09002KT 21/19 A3001 RMK A01 T02070190  RH  090%=      5-min Rain = 0
KTA1 100705Z 09002KT 21/19 A3001 RMK A01 T02070190  RH  090%=      5-min Rain = 0
KTA1 100706Z 10002KT 21/19 A3001 RMK A01 T02070190  RH  090%=      5-min Rain = 0
KTA1 100707Z 10002KT 21/19 A3001 RMK A01 T02060189  RH  090%=      5-min Rain = 0
KTA1 100708Z 11002KT 21/19 A3001 RMK A01 T02060190  RH  090%=      5-min Rain = 0
KTA1 100709Z 11002KT 21/19 A3001 RMK A01 T02060190  RH  090%=      5-min Rain = 0
KTA1 100710Z 12001KT 21/19 A3001 RMK A01 T02060189  RH  090%=      5-min Rain = 0
KTA1 100711Z 12001KT 21/19 A3001 RMK A01 T02060189  RH  090%=      5-min Rain = 0
KTA1 100712Z 12001KT 21/19 A3001 RMK A01 T02060189  RH  090%=      5-min Rain = 0
KTA1 100713Z 12000KT 21/19 A3001 RMK A01 T02060189  RH  090%=      5-min Rain = 0
KTA1 100714Z 00000KT 21/19 A3001 RMK A01 T02060189  RH  090%=      5-min Rain = 0
KTA1 100715Z 00000KT 21/19 A3001 RMK A01 T02070189  RH  090%=      5-min Rain = 0
KTA1 100716Z 00000KT 21/19 A3001 RMK A01 T02070189  RH  090%=      5-min Rain = 0
KTA1 100717Z 00000KT 21/19 A3001 RMK A01 T02060189  RH  090%=      5-min Rain = 0
KTA1 100718Z 00000KT 21/19 A3001 RMK A01 T02060189  RH  090%=      5-min Rain = 0
KTA1 100719Z 00000KT 21/19 A3001 RMK A01 T02060190  RH  091%=      5-min Rain = 0
KTA1 100720Z 00000KT 21/19 A3001 RMK A01 T02060191  RH  091%=      5-min Rain = 0
KTA1 100721Z 00000KT 21/19 A3001 RMK A01 T02060191  RH  091%=      5-min Rain = 0
KTA1 100722Z 00000KT 21/19 A3001 RMK A01 T02060190  RH  091%=      5-min Rain = 0
KTA1 100723Z 00000KT 21/19 A3001 RMK A01 T02060190  RH  091%=      5-min Rain = 0
KTA1 100724Z 00000KT 21/19 A3001 RMK A01 T02050190  RH  091%=      5-min Rain = 0
KTA1 100725Z 13001KT 21/19 A3001 RMK A01 T02050191  RH  092%=      5-min Rain = 0
KTA1 100726Z 13001KT 21/19 A3001 RMK A01 T02050191  RH  091%=      5-min Rain = 0
KTA1 100727Z 13001KT 21/19 A3001 RMK A01 T02060190  RH  091%=      5-min Rain = 0
KTA1 100728Z 13001KT 21/19 A3001 RMK A01 T02060190  RH  091%=      5-min Rain = 0
KTA1 100729Z 13002KT 21/19 A3001 RMK A01 T02050189  RH  090%=      5-min Rain = 0
KTA1 100730Z 13002KT 21/19 A3002 RMK A01 T02050190  RH  091%=      5-min Rain = 0
KTA1 100731Z 13002KT 21/19 A3002 RMK A01 T02060192  RH  092%=      5-min Rain = 0
KTA1 100732Z 13002KT 21/19 A3001 RMK A01 T02060192  RH  092%=      5-min Rain = 0
KTA1 100733Z 13002KT 21/19 A3001 RMK A01 T02060193  RH  092%=      5-min Rain = 0
KTA1 100734Z 13002KT 21/19 A3001 RMK A01 T02060193  RH  092%=      5-min Rain = 0
KTA1 100735Z 13003KT 21/19 A3001 RMK A01 T02060193  RH  092%=      5-min Rain = 0
KTA1 100736Z 13003KT 21/19 A3001 RMK A01 T02060193  RH  092%=      5-min Rain = 0
KTA1 100737Z 14003KT 21/19 A3001 RMK A01 T02060193  RH  093%=      5-min Rain = 0
KTA1 100738Z 14003KT 21/19 A3001 RMK A01 T02060193  RH  093%=      5-min Rain = 0
KTA1 100739Z 14004KT 21/19 A3001 RMK A01 T02050193  RH  093%=      5-min Rain = 0
KTA1 100740Z 14004KT 21/19 A3001 RMK A01 T02050192  RH  093%=      5-min Rain = 0
KTA1 100741Z 14004KT 21/19 A3001 RMK A01 T02050192  RH  092%=      5-min Rain = 0
KTA1 100742Z 14005KT 21/19 A3001 RMK A01 T02050192  RH  092%=      5-min Rain = 0
KTA1 100743Z 13005KT 21/19 A3001 RMK A01 T02050191  RH  092%=      5-min Rain = 0
KTA1 100744Z 13005KT 21/19 A3001 RMK A01 T02050191  RH  092%=      5-min Rain = 0
KTA1 100745Z 13005KT 21/19 A3001 RMK A01 T02050190  RH  091%=      5-min Rain = 0
KTA1 100746Z 13005KT 21/19 A3001 RMK A01 T02050189  RH  091%=      5-min Rain = 0
KTA1 100747Z 13005KT 21/19 A3001 RMK A01 T02050188  RH  090%=      5-min Rain = 0
KTA1 100748Z 13005KT 21/19 A3001 RMK A01 T02050188  RH  090%=      5-min Rain = 0
KTA1 100749Z 13005KT 21/19 A3001 RMK A01 T02050188  RH  090%=      5-min Rain = 0
KTA1 100750Z 13006KT 21/19 A3001 RMK A01 T02050188  RH  090%=      5-min Rain = 0
KTA1 100751Z 14005KT 21/19 A3001 RMK A01 T02050188  RH  090%=      5-min Rain = 0
KTA1 100752Z 14005KT 21/19 A3001 RMK A01 T02050187  RH  089%=      5-min Rain = 0
KTA1 100753Z 14004KT 21/19 A3001 RMK A01 T02060187  RH  089%=      5-min Rain = 0
KTA1 100754Z 14004KT 21/19 A3001 RMK A01 T02060187  RH  089%=      5-min Rain = 0
KTA1 100755Z 14005KT 21/19 A3001 RMK A01 T02060187  RH  089%=      5-min Rain = 0
KTA1 100756Z 14005KT 21/19 A3001 RMK A01 T02060186  RH  089%=      5-min Rain = 0
KTA1 100757Z 14005KT 21/19 A3001 RMK A01 T02060187  RH  089%=      5-min Rain = 0
KTA1 100758Z 14004KT 21/19 A3001 RMK A01 T02060186  RH  089%=      5-min Rain = 0
KTA1 100759Z 14005KT 21/19 A3001 RMK A01 T02060186  RH  089%=      5-min Rain = 0
KTA1 100800Z 14005KT 21/19 A3001 RMK A01 T02060186  RH  089%=      5-min Rain = 0
KTA1 100801Z 14005KT 21/19 A3001 RMK A01 T02060186  RH  089%=      5-min Rain = 0
KTA1 100802Z 14004KT 21/19 A3001 RMK A01 T02060187  RH  089%=      5-min Rain = 0
KTA1 100803Z 14004KT 21/19 A3001 RMK A01 T02060187  RH  089%=      5-min Rain = 0
KTA1 100804Z 14004KT 21/19 A3001 RMK A01 T02060187  RH  089%=      5-min Rain = 0
KTA1 100805Z 14004KT 21/19 A3001 RMK A01 T02060187  RH  089%=      5-min Rain = 0
KTA1 100806Z 14004KT 21/19 A3001 RMK A01 T02060187  RH  089%=      5-min Rain = 0
KTA1 100807Z 14004KT 21/19 A3001 RMK A01 T02060187  RH  089%=      5-min Rain = 0
KTA1 100808Z 14004KT 21/19 A3001 RMK A01 T02060188  RH  089%=      5-min Rain = 0
KTA1 100809Z 14004KT 21/19 A3001 RMK A01 T02060188  RH  089%=      5-min Rain = 0
KTA1 100810Z 14004KT 21/19 A3001 RMK A01 T02060188  RH  089%=      5-min Rain = 0
KTA1 100811Z 14004KT 21/19 A3001 RMK A01 T02060188  RH  089%=      5-min Rain = 0
KTA1 100812Z 14004KT 21/19 A3001 RMK A01 T02050187  RH  089%=      5-min Rain = 0
KTA1 100813Z 14004KT 21/19 A3001 RMK A01 T02050188  RH  090%=      5-min Rain = 0
KTA1 100814Z 15003KT 21/19 A3001 RMK A01 T02050188  RH  090%=      5-min Rain = 0
KTA1 100815Z 15004KT 21/19 A3001 RMK A01 T02060188  RH  090%=      5-min Rain = 0
KTA1 100816Z 16003KT 21/19 A3001 RMK A01 T02050188  RH  090%=      5-min Rain = 0
KTA1 100817Z 16003KT 21/19 A3001 RMK A01 T02050187  RH  089%=      5-min Rain = 0
KTA1 100818Z 16003KT 21/19 A3001 RMK A01 T02050187  RH  089%=      5-min Rain = 0
KTA1 100819Z 16003KT 21/19 A3001 RMK A01 T02060187  RH  089%=      5-min Rain = 0
KTA1 100820Z 16003KT 21/19 A3001 RMK A01 T02060186  RH  089%=      5-min Rain = 0
KTA1 100821Z 16004KT 21/19 A3001 RMK A01 T02060186  RH  088%=      5-min Rain = 0
KTA1 100822Z 15004KT 21/19 A3001 RMK A01 T02050186  RH  088%=      5-min Rain = 0
KTA1 100823Z 15004KT 21/19 A3001 RMK A01 T02060186  RH  088%=      5-min Rain = 0
KTA1 100824Z 14004KT 21/19 A3001 RMK A01 T02060186  RH  088%=      5-min Rain = 0
KTA1 100825Z 14004KT 21/19 A3001 RMK A01 T02060186  RH  088%=      5-min Rain = 0
KTA1 100826Z 14003KT 21/19 A3001 RMK A01 T02060186  RH  088%=      5-min Rain = 0
KTA1 100827Z 14004KT 21/19 A3001 RMK A01 T02060187  RH  089%=      5-min Rain = 0
KTA1 100828Z 14003KT 21/19 A3001 RMK A01 T02060187  RH  089%=      5-min Rain = 0
KTA1 100829Z 15003KT 21/19 A3001 RMK A01 T02060187  RH  089%=      5-min Rain = 0
KTA1 100830Z 15003KT 21/19 A3001 RMK A01 T02070187  RH  089%=      5-min Rain = 0
KTA1 100831Z 15003KT 21/19 A3001 RMK A01 T02060187  RH  089%=      5-min Rain = 0
KTA1 100832Z 15003KT 21/19 A3001 RMK A01 T02070187  RH  089%=      5-min Rain = 0
KTA1 100833Z 14003KT 21/19 A3001 RMK A01 T02060187  RH  089%=      5-min Rain = 0
KTA1 100834Z 14003KT 21/19 A3001 RMK A01 T02060188  RH  089%=      5-min Rain = 0
KTA1 100835Z 13004KT 21/19 A3001 RMK A01 T02070189  RH  089%=      5-min Rain = 0
KTA1 100836Z 13004KT 21/19 A3001 RMK A01 T02070189  RH  089%=      5-min Rain = 0
KTA1 100837Z 13004KT 21/19 A3001 RMK A01 T02070189  RH  090%=      5-min Rain = 0
KTA1 100838Z 13004KT 21/19 A3001 RMK A01 T02070189  RH  090%=      5-min Rain = 0
KTA1 100839Z 13003KT 21/19 A3001 RMK A01 T02070189  RH  090%=      5-min Rain = 0
KTA1 100840Z 13003KT 21/19 A3001 RMK A01 T02070189  RH  090%=      5-min Rain = 0
KTA1 100841Z 14003KT 21/19 A3001 RMK A01 T02070190  RH  090%=      5-min Rain = 0
KTA1 100842Z 13003KT 21/19 A3001 RMK A01 T02070190  RH  090%=      5-min Rain = 0
KTA1 100843Z 14003KT 21/19 A3001 RMK A01 T02070189  RH  090%=      5-min Rain = 0
KTA1 100844Z 13003KT 21/19 A3001 RMK A01 T02060189  RH  090%=      5-min Rain = 0
KTA1 100845Z 13003KT 21/19 A3001 RMK A01 T02060189  RH  090%=      5-min Rain = 0
KTA1 100846Z 13003KT 21/19 A3001 RMK A01 T02070189  RH  090%=      5-min Rain = 0
KTA1 100847Z 13003KT 21/19 A3001 RMK A01 T02070189  RH  090%=      5-min Rain = 0
KTA1 100848Z 12003KT 21/19 A3001 RMK A01 T02060189  RH  090%=      5-min Rain = 0
KTA1 100849Z 12003KT 21/19 A3001 RMK A01 T02070189  RH  090%=      5-min Rain = 0
KTA1 100850Z 12003KT 21/19 A3001 RMK A01 T02060189  RH  090%=      5-min Rain = 0
KTA1 100851Z 12003KT 21/19 A3001 RMK A01 T02070189  RH  090%=      5-min Rain = 0
KTA1 100852Z 12004KT 21/19 A3001 RMK A01 T02070190  RH  090%=      5-min Rain = 0
KTA1 100853Z 12004KT 21/19 A3001 RMK A01 T02070190  RH  090%=      5-min Rain = 0
KTA1 100854Z 12004KT 21/19 A3001 RMK A01 T02070190  RH  090%=      5-min Rain = 0
KTA1 100855Z 13004KT 21/19 A3001 RMK A01 T02070189  RH  089%=      5-min Rain = 0
KTA1 100856Z 13004KT 21/19 A3001 RMK A01 T02070189  RH  089%=      5-min Rain = 0
KTA1 100857Z 13004KT 21/19 A3001 RMK A01 T02070189  RH  089%=      5-min Rain = 0
KTA1 100858Z 13004KT 21/19 A3001 RMK A01 T02080190  RH  089%=      5-min Rain = 0
KTA1 100859Z 13004KT 21/19 A3001 RMK A01 T02070189  RH  089%=      5-min Rain = 0
KTA1 100900Z 13004KT 21/19 A3001 RMK A01 T02070189  RH  089%=      5-min Rain = 0
KTA1 100901Z 13004KT 21/19 A3001 RMK A01 T02080188  RH  089%=      5-min Rain = 0
KTA1 100902Z 13004KT 21/19 A3001 RMK A01 T02080188  RH  088%=      5-min Rain = 0
KTA1 100903Z 14003KT 21/19 A3001 RMK A01 T02080188  RH  088%=      5-min Rain = 0
KTA1 100904Z 14003KT 21/19 A3001 RMK A01 T02080188  RH  088%=      5-min Rain = 0
KTA1 100905Z 14003KT 21/19 A3001 RMK A01 T02080188  RH  088%=      5-min Rain = 0
KTA1 100906Z 14003KT 21/19 A3001 RMK A01 T02080188  RH  088%=      5-min Rain = 0
KTA1 100907Z 14003KT 21/19 A3001 RMK A01 T02080188  RH  088%=      5-min Rain = 0
KTA1 100908Z 14003KT 21/19 A3001 RMK A01 T02080188  RH  088%=      5-min Rain = 0
KTA1 100909Z 13003KT 21/19 A3001 RMK A01 T02090188  RH  088%=      5-min Rain = 0
KTA1 100910Z 13003KT 21/19 A3001 RMK A01 T02090188  RH  088%=      5-min Rain = 0
KTA1 100911Z 13004KT 21/19 A3001 RMK A01 T02090188  RH  088%=      5-min Rain = 0
KTA1 100912Z 13004KT 21/19 A3001 RMK A01 T02090188  RH  088%=      5-min Rain = 0
KTA1 100913Z 13005KT 21/19 A3001 RMK A01 T02090189  RH  088%=      5-min Rain = 0
KTA1 100914Z 13005KT 21/19 A3001 RMK A01 T02090189  RH  088%=      5-min Rain = 0
KTA1 100915Z 13005KT 21/19 A3001 RMK A01 T02090188  RH  088%=      5-min Rain = 0
KTA1 100916Z 13005KT 21/19 A3001 RMK A01 T02090188  RH  088%=      5-min Rain = 0
KTA1 100917Z 13005KT 21/19 A3001 RMK A01 T02090188  RH  088%=      5-min Rain = 0
KTA1 100918Z 13005KT 21/19 A3001 RMK A01 T02100188  RH  087%=      5-min Rain = 0
KTA1 100919Z 13005KT 21/19 A3001 RMK A01 T02100188  RH  087%=      5-min Rain = 0
KTA1 100920Z 13005KT 21/19 A3001 RMK A01 T02100188  RH  087%=      5-min Rain = 0
KTA1 100921Z 13005KT 21/19 A3001 RMK A01 T02100187  RH  087%=      5-min Rain = 0
KTA1 100922Z 13005KT 21/19 A3001 RMK A01 T02100187  RH  087%=      5-min Rain = 0
KTA1 100923Z 13005KT 21/19 A3001 RMK A01 T02100187  RH  086%=      5-min Rain = 0
KTA1 100924Z 14005KT 21/19 A3001 RMK A01 T02110187  RH  086%=      5-min Rain = 0
KTA1 100925Z 14005KT 21/19 A3001 RMK A01 T02110187  RH  086%=      5-min Rain = 0
KTA1 100926Z 14005KT 21/19 A3001 RMK A01 T02110187  RH  086%=      5-min Rain = 0
KTA1 100927Z 15005KT 21/19 A3001 RMK A01 T02110186  RH  086%=      5-min Rain = 0
KTA1 100928Z 14004KT 21/19 A3001 RMK A01 T02110186  RH  086%=      5-min Rain = 0
KTA1 100929Z 14005KT 21/19 A3001 RMK A01 T02120187  RH  086%=      5-min Rain = 0
KTA1 100930Z 15004KT 21/19 A3001 RMK A01 T02120187  RH  085%=      5-min Rain = 0
KTA1 100931Z 15006KT 21/19 A3001 RMK A01 T02120187  RH  085%=      5-min Rain = 0
KTA1 100932Z 15005KT 21/19 A3001 RMK A01 T02120187  RH  085%=      5-min Rain = 0
KTA1 100933Z 15004KT 21/19 A3001 RMK A01 T02130187  RH  085%=      5-min Rain = 0
KTA1 100934Z 15005KT 21/19 A3002 RMK A01 T02130186  RH  085%=      5-min Rain = 0
KTA1 100935Z 15006KT 21/19 A3002 RMK A01 T02130187  RH  085%=      5-min Rain = 0
KTA1 100936Z 15006KT 21/19 A3002 RMK A01 T02140186  RH  084%=      5-min Rain = 0
KTA1 100937Z 15006KT 21/19 A3002 RMK A01 T02140186  RH  084%=      5-min Rain = 0
KTA1 100938Z 16007KT 21/19 A3002 RMK A01 T02140186  RH  084%=      5-min Rain = 0
KTA1 100939Z 15006KT 22/19 A3002 RMK A01 T02150186  RH  083%=      5-min Rain = 0
KTA1 100940Z 15006KT 22/19 A3002 RMK A01 T02160186  RH  083%=      5-min Rain = 0
KTA1 100941Z 15006KT 22/19 A3002 RMK A01 T02150186  RH  083%=      5-min Rain = 0
KTA1 100942Z 15005KT 22/19 A3002 RMK A01 T02160186  RH  083%=      5-min Rain = 0
KTA1 100943Z 16007KT 22/19 A3002 RMK A01 T02160186  RH  083%=      5-min Rain = 0
KTA1 100944Z 16007KT 22/19 A3002 RMK A01 T02160186  RH  083%=      5-min Rain = 0
KTA1 100945Z 16006KT 22/19 A3002 RMK A01 T02160186  RH  083%=      5-min Rain = 0
KTA1 100946Z 15005KT 22/19 A3002 RMK A01 T02160186  RH  083%=      5-min Rain = 0
KTA1 100947Z 16007KT 22/19 A3002 RMK A01 T02160187  RH  083%=      5-min Rain = 0
KTA1 100948Z 15005KT 22/19 A3002 RMK A01 T02170187  RH  083%=      5-min Rain = 0
KTA1 100949Z 16006KT 22/19 A3002 RMK A01 T02170187  RH  083%=      5-min Rain = 0
KTA1 100950Z 16006KT 22/19 A3002 RMK A01 T02170187  RH  083%=      5-min Rain = 0
KTA1 100951Z 15007KT 22/19 A3002 RMK A01 T02160187  RH  083%=      5-min Rain = 0
KTA1 100952Z 15007KT 22/19 A3002 RMK A01 T02170187  RH  083%=      5-min Rain = 0
KTA1 100953Z 15007KT 22/19 A3002 RMK A01 T02160187  RH  083%=      5-min Rain = 0
KTA1 100954Z 16006KT 22/19 A3002 RMK A01 T02170187  RH  083%=      5-min Rain = 0
KTA1 100955Z 16008KT 22/19 A3002 RMK A01 T02170187  RH  083%=      5-min Rain = 0
KTA1 100956Z 15007KT 22/19 A3002 RMK A01 T02170186  RH  083%=      5-min Rain = 0
KTA1 100957Z 16006KT 22/19 A3002 RMK A01 T02170187  RH  083%=      5-min Rain = 0
KTA1 100958Z 16007KT 22/19 A3002 RMK A01 T02170187  RH  083%=      5-min Rain = 0
KTA1 100959Z 15007KT 22/19 A3002 RMK A01 T02170187  RH  083%=      5-min Rain = 0
KTA1 101000Z 16007KT 22/19 A3002 RMK A01 T02170187  RH  083%=      5-min Rain = 0
KTA1 101001Z 16008KT 22/19 A3002 RMK A01 T02170187  RH  083%=      5-min Rain = 0
KTA1 101002Z 16007KT 22/19 A3002 RMK A01 T02180188  RH  083%=      5-min Rain = 0
KTA1 101003Z 16007KT 22/19 A3002 RMK A01 T02170187  RH  083%=      5-min Rain = 0
KTA1 101004Z 16008KT 22/19 A3002 RMK A01 T02170188  RH  083%=      5-min Rain = 0
KTA1 101005Z 16007KT 22/19 A3002 RMK A01 T02170188  RH  083%=      5-min Rain = 0
KTA1 101006Z 16007KT 22/19 A3002 RMK A01 T02180188  RH  083%=      5-min Rain = 0
KTA1 101007Z 16006KT 22/19 A3002 RMK A01 T02170187  RH  083%=      5-min Rain = 0
KTA1 101008Z 16007KT 22/19 A3002 RMK A01 T02180188  RH  083%=      5-min Rain = 0
KTA1 101009Z 17007KT 22/19 A3002 RMK A01 T02170187  RH  083%=      5-min Rain = 0
KTA1 101010Z 16007KT 22/19 A3002 RMK A01 T02180188  RH  083%=      5-min Rain = 0
KTA1 101011Z 17007KT 22/19 A3002 RMK A01 T02180188  RH  083%=      5-min Rain = 0
KTA1 101012Z 17007KT 22/19 A3002 RMK A01 T02180188  RH  083%=      5-min Rain = 0
KTA1 101013Z 17008KT 22/19 A3002 RMK A01 T02180188  RH  083%=      5-min Rain = 0
KTA1 101014Z 17007KT 22/19 A3002 RMK A01 T02180188  RH  083%=      5-min Rain = 0
KTA1 101015Z 17006KT 22/19 A3002 RMK A01 T02180188  RH  083%=      5-min Rain = 0
KTA1 101016Z 17006KT 22/19 A3002 RMK A01 T02180188  RH  083%=      5-min Rain = 0
KTA1 101017Z 17008KT 22/19 A3002 RMK A01 T02180188  RH  083%=      5-min Rain = 0
KTA1 101018Z 17008KT 22/19 A3003 RMK A01 T02180188  RH  083%=      5-min Rain = 0
KTA1 101019Z 17008KT 22/19 A3003 RMK A01 T02180188  RH  083%=      5-min Rain = 0
KTA1 101020Z 17008KT 22/19 A3003 RMK A01 T02180188  RH  083%=      5-min Rain = 0
KTA1 101021Z 17007KT 22/19 A3003 RMK A01 T02180188  RH  083%=      5-min Rain = 0
KTA1 101022Z 17008KT 22/19 A3003 RMK A01 T02180188  RH  083%=      5-min Rain = 0
KTA1 101023Z 17008KT 22/19 A3003 RMK A01 T02180188  RH  083%=      5-min Rain = 0
KTA1 101024Z 16007KT 22/19 A3003 RMK A01 T02190188  RH  083%=      5-min Rain = 0
KTA1 101025Z 16007KT 22/19 A3003 RMK A01 T02190188  RH  083%=      5-min Rain = 0
KTA1 101026Z 16010KT 22/19 A3003 RMK A01 T02190188  RH  083%=      5-min Rain = 0
KTA1 101027Z 17008KT 22/19 A3003 RMK A01 T02190187  RH  082%=      5-min Rain = 0
KTA1 101028Z 17008KT 22/19 A3003 RMK A01 T02200188  RH  082%=      5-min Rain = 0
KTA1 101029Z 17008KT 22/19 A3003 RMK A01 T02190188  RH  082%=      5-min Rain = 0
KTA1 101030Z 17009KT 22/19 A3003 RMK A01 T02190188  RH  082%=      5-min Rain = 0
KTA1 101031Z 16007KT 22/19 A3003 RMK A01 T02190188  RH  082%=      5-min Rain = 0
KTA1 101032Z 17008KT 22/19 A3003 RMK A01 T02190188  RH  082%=      5-min Rain = 0
KTA1 101033Z 17008KT 22/19 A3003 RMK A01 T02190188  RH  082%=      5-min Rain = 0
KTA1 101034Z 16008KT 22/19 A3003 RMK A01 T02190188  RH  082%=      5-min Rain = 0
KTA1 101035Z 17007KT 22/19 A3003 RMK A01 T02190188  RH  082%=      5-min Rain = 0
KTA1 101036Z 17008KT 22/19 A3003 RMK A01 T02190188  RH  082%=      5-min Rain = 0
KTA1 101037Z 17008KT 22/19 A3003 RMK A01 T02190188  RH  082%=      5-min Rain = 0
KTA1 101038Z 17009KT 22/19 A3003 RMK A01 T02190188  RH  082%=      5-min Rain = 0
KTA1 101039Z 17008KT 22/19 A3003 RMK A01 T02190188  RH  082%=      5-min Rain = 0
KTA1 101040Z 17008KT 22/19 A3003 RMK A01 T02200188  RH  082%=      5-min Rain = 0
KTA1 101041Z 17008KT 22/19 A3003 RMK A01 T02200188  RH  082%=      5-min Rain = 0
KTA1 101042Z 17009KT 22/19 A3003 RMK A01 T02200188  RH  082%=      5-min Rain = 0
KTA1 101043Z 17008KT 22/19 A3003 RMK A01 T02200188  RH  082%=      5-min Rain = 0
KTA1 101044Z 17009KT 22/19 A3003 RMK A01 T02200188  RH  082%=      5-min Rain = 0
KTA1 101045Z 16008KT 22/19 A3003 RMK A01 T02200188  RH  082%=      5-min Rain = 0
KTA1 101046Z 17008KT 22/19 A3003 RMK A01 T02200188  RH  082%=      5-min Rain = 0
KTA1 101047Z 17009KT 22/19 A3003 RMK A01 T02190188  RH  082%=      5-min Rain = 0
KTA1 101048Z 17008KT 22/19 A3003 RMK A01 T02200188  RH  082%=      5-min Rain = 0
KTA1 101049Z 17009KT 22/19 A3003 RMK A01 T02200188  RH  082%=      5-min Rain = 0
KTA1 101050Z 17010KT 22/19 A3003 RMK A01 T02200188  RH  082%=      5-min Rain = 0
KTA1 101051Z 17007KT 22/19 A3003 RMK A01 T02200188  RH  082%=      5-min Rain = 0
KTA1 101052Z 17008KT 22/19 A3003 RMK A01 T02200188  RH  082%=      5-min Rain = 0
KTA1 101053Z 17007KT 22/19 A3003 RMK A01 T02200188  RH  082%=      5-min Rain = 0
KTA1 101054Z 17008KT 22/19 A3003 RMK A01 T02190188  RH  082%=      5-min Rain = 0
KTA1 101055Z 17007KT 22/19 A3003 RMK A01 T02190188  RH  082%=      5-min Rain = 0
KTA1 101056Z 17006KT 22/19 A3003 RMK A01 T02190188  RH  083%=      5-min Rain = 0
KTA1 101057Z 17009KT 22/19 A3003 RMK A01 T02190189  RH  083%=      5-min Rain = 0
KTA1 101058Z 16008KT 22/19 A3003 RMK A01 T02190188  RH  082%=      5-min Rain = 0
KTA1 101059Z 17008KT 22/19 A3003 RMK A01 T02200188  RH  082%=      5-min Rain = 0
KTA1 101100Z 16008KT 22/19 A3003 RMK A01 T02190188  RH  082%=      5-min Rain = 0
KTA1 101101Z 16009KT 22/19 A3003 RMK A01 T02190188  RH  083%=      5-min Rain = 0
KTA1 101102Z 16010KT 22/19 A3003 RMK A01 T02190188  RH  082%=      5-min Rain = 0
KTA1 101103Z 16008KT 22/19 A3003 RMK A01 T02200188  RH  082%=      5-min Rain = 0
KTA1 101104Z 16009KT 22/19 A3003 RMK A01 T02190188  RH  082%=      5-min Rain = 0
KTA1 101105Z 16008KT 22/19 A3004 RMK A01 T02190188  RH  083%=      5-min Rain = 0
KTA1 101106Z 17009KT 22/19 A3004 RMK A01 T02190188  RH  083%=      5-min Rain = 0
KTA1 101107Z 17009KT 22/19 A3004 RMK A01 T02190188  RH  083%=      5-min Rain = 0
KTA1 101108Z 16008KT 22/19 A3004 RMK A01 T02190188  RH  083%=      5-min Rain = 0
KTA1 101109Z 16008KT 22/19 A3004 RMK A01 T02190188  RH  083%=      5-min Rain = 0
KTA1 101110Z 16008KT 22/19 A3004 RMK A01 T02190188  RH  083%=      5-min Rain = 0
KTA1 101111Z 16008KT 22/19 A3004 RMK A01 T02190188  RH  083%=      5-min Rain = 0
KTA1 101112Z 16009KT 22/19 A3004 RMK A01 T02190188  RH  083%=      5-min Rain = 0
KTA1 101113Z 16008KT 22/19 A3004 RMK A01 T02190188  RH  083%=      5-min Rain = 0
KTA1 101114Z 17008KT 22/19 A3004 RMK A01 T02190189  RH  083%=      5-min Rain = 0
KTA1 101115Z 16007KT 22/19 A3004 RMK A01 T02190189  RH  083%=      5-min Rain = 0
KTA1 101116Z 16008KT 22/19 A3004 RMK A01 T02190189  RH  083%=      5-min Rain = 0
KTA1 101117Z 16009KT 22/19 A3004 RMK A01 T02180189  RH  083%=      5-min Rain = 0
KTA1 101118Z 16008KT 22/19 A3004 RMK A01 T02180189  RH  083%=      5-min Rain = 0
KTA1 101119Z 16007KT 22/19 A3004 RMK A01 T02180189  RH  083%=      5-min Rain = 0
KTA1 101120Z 16008KT 22/19 A3004 RMK A01 T02180189  RH  084%=      5-min Rain = 0
KTA1 101121Z 16008KT 22/19 A3004 RMK A01 T02180189  RH  084%=      5-min Rain = 0
KTA1 101122Z 16007KT 22/19 A3004 RMK A01 T02180189  RH  084%=      5-min Rain = 0
KTA1 101123Z 16008KT 22/19 A3004 RMK A01 T02180189  RH  084%=      5-min Rain = 0
KTA1 101124Z 16007KT 22/19 A3004 RMK A01 T02180189  RH  084%=      5-min Rain = 0
KTA1 101125Z 16006KT 22/19 A3004 RMK A01 T02170189  RH  084%=      5-min Rain = 0
KTA1 101126Z 16007KT 22/19 A3004 RMK A01 T02170189  RH  084%=      5-min Rain = 0
KTA1 101127Z 16006KT 22/19 A3004 RMK A01 T02170189  RH  084%=      5-min Rain = 0
KTA1 101128Z 16007KT 22/19 A3004 RMK A01 T02170189  RH  084%=      5-min Rain = 0
KTA1 101129Z 16007KT 22/19 A3004 RMK A01 T02170189  RH  084%=      5-min Rain = 0
KTA1 101130Z 16007KT 22/19 A3004 RMK A01 T02160189  RH  084%=      5-min Rain = 0
KTA1 101131Z 16007KT 22/19 A3004 RMK A01 T02170189  RH  084%=      5-min Rain = 0
KTA1 101132Z 16007KT 22/19 A3004 RMK A01 T02160189  RH  084%=      5-min Rain = 0
KTA1 101133Z 16006KT 22/19 A3004 RMK A01 T02170190  RH  085%=      5-min Rain = 0
KTA1 101134Z 16006KT 22/19 A3004 RMK A01 T02160189  RH  085%=      5-min Rain = 0
KTA1 101135Z 16006KT 22/19 A3004 RMK A01 T02160190  RH  085%=      5-min Rain = 0
KTA1 101136Z 16006KT 22/19 A3004 RMK A01 T02160189  RH  085%=      5-min Rain = 0
KTA1 101137Z 16006KT 22/19 A3004 RMK A01 T02150189  RH  085%=      5-min Rain = 0
KTA1 101138Z 15008KT 22/19 A3004 RMK A01 T02160190  RH  085%=      5-min Rain = 0
KTA1 101139Z 16007KT 22/19 A3004 RMK A01 T02160189  RH  085%=      5-min Rain = 0
KTA1 101140Z 16007KT 22/19 A3004 RMK A01 T02160189  RH  085%=      5-min Rain = 0
KTA1 101141Z 16008KT 22/19 A3004 RMK A01 T02160190  RH  085%=      5-min Rain = 0
KTA1 101142Z 16006KT 22/19 A3004 RMK A01 T02160190  RH  085%=      5-min Rain = 0
KTA1 101143Z 16006KT 22/19 A3004 RMK A01 T02150189  RH  085%=      5-min Rain = 0
KTA1 101144Z 16006KT 22/19 A3004 RMK A01 T02150190  RH  086%=      5-min Rain = 0
KTA1 101145Z 16008KT 22/19 A3004 RMK A01 T02150190  RH  086%=      5-min Rain = 0
KTA1 101146Z 16008KT 21/19 A3004 RMK A01 T02140189  RH  085%=      5-min Rain = 0
KTA1 101147Z 16007KT 22/19 A3004 RMK A01 T02150189  RH  085%=      5-min Rain = 0
KTA1 101148Z 16007KT 22/19 A3004 RMK A01 T02150189  RH  085%=      5-min Rain = 0
KTA1 101149Z 16007KT 22/19 A3004 RMK A01 T02150190  RH  086%=      5-min Rain = 0
KTA1 101150Z 16008KT 22/19 A3004 RMK A01 T02150189  RH  085%=      5-min Rain = 0
KTA1 101151Z 16008KT 22/19 A3004 RMK A01 T02150189  RH  085%=      5-min Rain = 0
KTA1 101152Z 15007KT 22/19 A3004 RMK A01 T02150189  RH  085%=      5-min Rain = 0
KTA1 101153Z 16008KT 22/19 A3004 RMK A01 T02150190  RH  086%=      5-min Rain = 0
KTA1 101154Z 16007KT 22/19 A3004 RMK A01 T02150189  RH  086%=      5-min Rain = 0
KTA1 101155Z 15008KT 22/19 A3004 RMK A01 T02150190  RH  086%=      5-min Rain = 0
KTA1 101156Z 16008KT 22/19 A3004 RMK A01 T02150190  RH  086%=      5-min Rain = 0
KTA1 101157Z 16006KT 22/19 A3004 RMK A01 T02150190  RH  086%=      5-min Rain = 0
KTA1 101158Z 16007KT 22/19 A3004 RMK A01 T02150190  RH  086%=      5-min Rain = 0
KTA1 101159Z 16006KT 22/19 A3004 RMK A01 T02150190  RH  086%=      5-min Rain = 0
KTA1 101200Z 16007KT 21/19 A3004 RMK A01 T02140190  RH  086%=      5-min Rain = 0
KTA1 101201Z 16007KT 21/19 A3004 RMK A01 T02140190  RH  086%=      5-min Rain = 0
KTA1 101202Z 16007KT 21/19 A3004 RMK A01 T02140190  RH  086%=      5-min Rain = 0
KTA1 101203Z 16008KT 21/19 A3004 RMK A01 T02140190  RH  086%=      5-min Rain = 0
KTA1 101204Z 16008KT 21/19 A3004 RMK A01 T02140190  RH  086%=      5-min Rain = 0
KTA1 101205Z 16007KT 21/19 A3004 RMK A01 T02140190  RH  086%=      5-min Rain = 0
KTA1 101206Z 15008KT 21/19 A3004 RMK A01 T02140190  RH  086%=      5-min Rain = 0
KTA1 101207Z 15007KT 21/19 A3004 RMK A01 T02140190  RH  086%=      5-min Rain = 0
KTA1 101208Z 15007KT 21/19 A3004 RMK A01 T02140190  RH  087%=      5-min Rain = 0
KTA1 101209Z 15007KT 21/19 A3004 RMK A01 T02140191  RH  087%=      5-min Rain = 0
KTA1 101210Z 15007KT 21/19 A3004 RMK A01 T02130190  RH  087%=      5-min Rain = 0
KTA1 101211Z 15006KT 21/19 A3004 RMK A01 T02130190  RH  087%=      5-min Rain = 0
KTA1 101212Z 15007KT 21/19 A3004 RMK A01 T02130191  RH  087%=      5-min Rain = 0
KTA1 101213Z 16007KT 21/19 A3004 RMK A01 T02130190  RH  087%=      5-min Rain = 0
KTA1 101214Z 15007KT 21/19 A3004 RMK A01 T02130191  RH  087%=      5-min Rain = 0
KTA1 101215Z 15007KT 21/19 A3004 RMK A01 T02130191  RH  087%=      5-min Rain = 0
KTA1 101216Z 15007KT 21/19 A3004 RMK A01 T02130191  RH  087%=      5-min Rain = 0
KTA1 101217Z 15007KT 21/19 A3004 RMK A01 T02130191  RH  087%=      5-min Rain = 0
KTA1 101218Z 15007KT 21/19 A3004 RMK A01 T02130191  RH  087%=      5-min Rain = 0
KTA1 101219Z 15009KT 21/19 A3004 RMK A01 T02130191  RH  087%=      5-min Rain = 0
KTA1 101220Z 16008KT 21/19 A3004 RMK A01 T02130191  RH  087%=      5-min Rain = 0
KTA1 101221Z 16007KT 21/19 A3004 RMK A01 T02130190  RH  087%=      5-min Rain = 0
KTA1 101222Z 15009KT 21/19 A3004 RMK A01 T02130190  RH  087%=      5-min Rain = 0
KTA1 101223Z 15008KT 21/19 A3005 RMK A01 T02130190  RH  087%=      5-min Rain = 0
KTA1 101224Z 15008KT 21/19 A3005 RMK A01 T02130190  RH  087%=      5-min Rain = 0
KTA1 101225Z 15008KT 21/19 A3005 RMK A01 T02130190  RH  087%=      5-min Rain = 0
KTA1 101226Z 15009KT 21/19 A3005 RMK A01 T02130190  RH  087%=      5-min Rain = 0
KTA1 101227Z 15008KT 21/19 A3005 RMK A01 T02130190  RH  086%=      5-min Rain = 0
KTA1 101228Z 15008KT 21/19 A3005 RMK A01 T02130190  RH  086%=      5-min Rain = 0
KTA1 101229Z 15008KT 21/19 A3005 RMK A01 T02140190  RH  086%=      5-min Rain = 0
KTA1 101230Z 15009KT 21/19 A3005 RMK A01 T02140190  RH  086%=      5-min Rain = 0
KTA1 101231Z 15009KT 21/19 A3005 RMK A01 T02140190  RH  086%=      5-min Rain = 0
KTA1 101232Z 15007KT 21/19 A3005 RMK A01 T02140190  RH  086%=      5-min Rain = 0
KTA1 101233Z 16007KT 21/19 A3005 RMK A01 T02140190  RH  086%=      5-min Rain = 0
KTA1 101234Z 16008KT 21/19 A3005 RMK A01 T02140190  RH  086%=      5-min Rain = 0
KTA1 101235Z 16008KT 21/19 A3005 RMK A01 T02140190  RH  086%=      5-min Rain = 0
KTA1 101236Z 16008KT 21/19 A3005 RMK A01 T02140190  RH  086%=      5-min Rain = 0
KTA1 101237Z 16008KT 21/19 A3005 RMK A01 T02140190  RH  086%=      5-min Rain = 0
KTA1 101238Z 16008KT 21/19 A3005 RMK A01 T02140190  RH  086%=      5-min Rain = 0
KTA1 101239Z 16008KT 22/19 A3005 RMK A01 T02150190  RH  086%=      5-min Rain = 0
KTA1 101240Z 16008KT 22/19 A3005 RMK A01 T02150190  RH  086%=      5-min Rain = 0
KTA1 101241Z 16008KT 22/19 A3005 RMK A01 T02150190  RH  086%=      5-min Rain = 0
KTA1 101242Z 16007KT 22/19 A3005 RMK A01 T02150190  RH  086%=      5-min Rain = 0
KTA1 101243Z 16007KT 22/19 A3005 RMK A01 T02150190  RH  086%=      5-min Rain = 0
KTA1 101244Z 16007KT 22/19 A3005 RMK A01 T02150190  RH  086%=      5-min Rain = 0
KTA1 101245Z 16007KT 22/19 A3005 RMK A01 T02150190  RH  086%=      5-min Rain = 0
KTA1 101246Z 16007KT 22/19 A3006 RMK A01 T02150190  RH  086%=      5-min Rain = 0
KTA1 101247Z 16008KT 22/19 A3006 RMK A01 T02150190  RH  085%=      5-min Rain = 0
KTA1 101248Z 16008KT 22/19 A3006 RMK A01 T02160190  RH  085%=      5-min Rain = 0
KTA1 101249Z 16008KT 22/19 A3006 RMK A01 T02160190  RH  085%=      5-min Rain = 0
KTA1 101250Z 16008KT 22/19 A3006 RMK A01 T02160190  RH  085%=      5-min Rain = 0
KTA1 101251Z 15009KT 22/19 A3006 RMK A01 T02160190  RH  085%=      5-min Rain = 0
KTA1 101252Z 15008KT 22/19 A3006 RMK A01 T02160190  RH  085%=      5-min Rain = 0
KTA1 101253Z 15009KT 22/19 A3005 RMK A01 T02160190  RH  085%=      5-min Rain = 0
KTA1 101254Z 15009KT 22/19 A3005 RMK A01 T02160190  RH  085%=      5-min Rain = 0
KTA1 101255Z 16008KT 22/19 A3005 RMK A01 T02160191  RH  085%=      5-min Rain = 0
KTA1 101256Z 15009KT 22/19 A3005 RMK A01 T02160191  RH  085%=      5-min Rain = 0
KTA1 101257Z 15010KT 22/19 A3005 RMK A01 T02160190  RH  085%=      5-min Rain = 0
KTA1 101258Z 15009KT 22/19 A3005 RMK A01 T02160190  RH  085%=      5-min Rain = 0
KTA1 101259Z 15009KT 22/19 A3005 RMK A01 T02160190  RH  085%=      5-min Rain = 0
KTA1 101300Z 15009KT 22/19 A3005 RMK A01 T02160190  RH  085%=      5-min Rain = 0
KTA1 101301Z 15008KT 22/19 A3005 RMK A01 T02160190  RH  085%=      5-min Rain = 0
KTA1 101302Z 15008KT 22/19 A3006 RMK A01 T02160190  RH  085%=      5-min Rain = 0
KTA1 101303Z 15010KT 22/19 A3006 RMK A01 T02160190  RH  085%=      5-min Rain = 0
KTA1 101304Z 15010KT 22/19 A3006 RMK A01 T02160190  RH  085%=      5-min Rain = 0
KTA1 101305Z 16008KT 22/19 A3006 RMK A01 T02160190  RH  085%=      5-min Rain = 0
KTA1 101306Z 15011KT 22/19 A3006 RMK A01 T02160190  RH  085%=      5-min Rain = 0
KTA1 101307Z 15009KT 22/19 A3006 RMK A01 T02170190  RH  085%=      5-min Rain = 0
KTA1 101308Z 15010KT 22/19 A3006 RMK A01 T02170190  RH  085%=      5-min Rain = 0
KTA1 101309Z 15010KT 22/19 A3006 RMK A01 T02160190  RH  085%=      5-min Rain = 0
KTA1 101310Z 15008KT 22/19 A3006 RMK A01 T02170190  RH  085%=      5-min Rain = 0
KTA1 101311Z 15009KT 22/19 A3006 RMK A01 T02170190  RH  085%=      5-min Rain = 0
KTA1 101312Z 15009KT 22/19 A3006 RMK A01 T02160190  RH  085%=      5-min Rain = 0
KTA1 101313Z 15010KT 22/19 A3006 RMK A01 T02170191  RH  085%=      5-min Rain = 0
KTA1 101314Z 15011KT 22/19 A3006 RMK A01 T02170191  RH  085%=      5-min Rain = 0
KTA1 101315Z 15011KT 22/19 A3006 RMK A01 T02170190  RH  085%=      5-min Rain = 0
KTA1 101316Z 15010KT 22/19 A3006 RMK A01 T02170190  RH  085%=      5-min Rain = 0
KTA1 101317Z 15010KT 22/19 A3006 RMK A01 T02180190  RH  085%=      5-min Rain = 0
KTA1 101318Z 15011KT 22/19 A3006 RMK A01 T02170190  RH  085%=      5-min Rain = 0
KTA1 101319Z 15012KT 22/19 A3006 RMK A01 T02180191  RH  084%=      5-min Rain = 0
KTA1 101320Z 15011KT 22/19 A3006 RMK A01 T02180190  RH  084%=      5-min Rain = 0
KTA1 101321Z 16012KT 22/19 A3006 RMK A01 T02180190  RH  084%=      5-min Rain = 0
KTA1 101322Z 15008KT 22/19 A3006 RMK A01 T02180190  RH  084%=      5-min Rain = 0
KTA1 101323Z 15011KT 22/19 A3006 RMK A01 T02180191  RH  084%=      5-min Rain = 0
KTA1 101324Z 15011KT 22/19 A3006 RMK A01 T02180190  RH  084%=      5-min Rain = 0
KTA1 101325Z 15011KT 22/19 A3006 RMK A01 T02180191  RH  084%=      5-min Rain = 0
KTA1 101326Z 15011KT 22/19 A3006 RMK A01 T02190191  RH  084%=      5-min Rain = 0
KTA1 101327Z 15013KT 22/19 A3006 RMK A01 T02190190  RH  084%=      5-min Rain = 0
KTA1 101328Z 15012KT 22/19 A3006 RMK A01 T02190190  RH  084%=      5-min Rain = 0
KTA1 101329Z 16012KT 22/19 A3006 RMK A01 T02190190  RH  084%=      5-min Rain = 0
KTA1 101330Z 15009KT 22/19 A3006 RMK A01 T02190190  RH  084%=      5-min Rain = 0
KTA1 101331Z 15012KT 22/19 A3006 RMK A01 T02200192  RH  084%=      5-min Rain = 0
KTA1 101332Z 16010KT 22/19 A3006 RMK A01 T02200191  RH  084%=      5-min Rain = 0
KTA1 101333Z 15011KT 22/19 A3006 RMK A01 T02200191  RH  084%=      5-min Rain = 0
KTA1 101334Z 16010G15KT 22/19 A3006 RMK A01 T02200191  RH  084%=      5-min Rain = 0
KTA1 101335Z 15013KT 22/19 A3006 RMK A01 T02200191  RH  084%=      5-min Rain = 0
KTA1 101336Z 16015KT 22/19 A3006 RMK A01 T02200191  RH  083%=      5-min Rain = 0
KTA1 101337Z 16012KT 22/19 A3006 RMK A01 T02200191  RH  083%=      5-min Rain = 0
KTA1 101338Z 15010KT 22/19 A3006 RMK A01 T02200191  RH  084%=      5-min Rain = 0
KTA1 101339Z 15010KT 22/19 A3006 RMK A01 T02200191  RH  084%=      5-min Rain = 0
KTA1 101340Z 15013G18KT 22/19 A3006 RMK A01 T02200191  RH  084%=      5-min Rain = 0
KTA1 101341Z 15012KT 22/19 A3007 RMK A01 T02210191  RH  083%=      5-min Rain = 0
KTA1 101342Z 15012KT 22/19 A3007 RMK A01 T02200191  RH  083%=      5-min Rain = 0
KTA1 101343Z 15013KT 22/19 A3006 RMK A01 T02210191  RH  083%=      5-min Rain = 0
KTA1 101344Z 15012G17KT 22/19 A3007 RMK A01 T02210191  RH  083%=      5-min Rain = 0
KTA1 101345Z 15012KT 22/19 A3007 RMK A01 T02210192  RH  083%=      5-min Rain = 0
KTA1 101346Z 15013KT 22/19 A3007 RMK A01 T02210192  RH  083%=      5-min Rain = 0
KTA1 101347Z 15012KT 22/19 A3007 RMK A01 T02220192  RH  083%=      5-min Rain = 0
KTA1 101348Z 15012KT 22/19 A3007 RMK A01 T02220192  RH  083%=      5-min Rain = 0
KTA1 101349Z 15012KT 22/19 A3007 RMK A01 T02220192  RH  083%=      5-min Rain = 0
KTA1 101350Z 16011KT 22/19 A3007 RMK A01 T02220192  RH  083%=      5-min Rain = 0
KTA1 101351Z 15013KT 22/19 A3007 RMK A01 T02220193  RH  083%=      5-min Rain = 0
KTA1 101352Z 15014G20KT 22/19 A3007 RMK A01 T02230192  RH  083%=      5-min Rain = 0
KTA1 101353Z 16014KT 22/19 A3007 RMK A01 T02230192  RH  083%=      5-min Rain = 0
KTA1 101354Z 15015KT 22/19 A3007 RMK A01 T02230192  RH  083%=      5-min Rain = 0
KTA1 101355Z 16013KT 22/19 A3007 RMK A01 T02230192  RH  083%=      5-min Rain = 0
KTA1 101356Z 15013KT 22/19 A3007 RMK A01 T02230193  RH  083%=      5-min Rain = 0
KTA1 101357Z 15013KT 22/19 A3007 RMK A01 T02230192  RH  083%=      5-min Rain = 0
KTA1 101358Z 16013KT 22/19 A3007 RMK A01 T02230192  RH  083%=      5-min Rain = 0
KTA1 101359Z 16013KT 22/19 A3007 RMK A01 T02230193  RH  083%=      5-min Rain = 0
KTA1 101400Z 16012KT 22/19 A3007 RMK A01 T02230193  RH  083%=      5-min Rain = 0
KTA1 101401Z 16011KT 22/19 A3007 RMK A01 T02230193  RH  083%=      5-min Rain = 0
KTA1 101402Z 15012KT 22/19 A3007 RMK A01 T02240194  RH  083%=      5-min Rain = 0
KTA1 101403Z 16012KT 22/19 A3007 RMK A01 T02240194  RH  083%=      5-min Rain = 0
KTA1 101404Z 16014KT 22/19 A3007 RMK A01 T02240193  RH  083%=      5-min Rain = 0
KTA1 101405Z 16016KT 22/19 A3007 RMK A01 T02240193  RH  083%=      5-min Rain = 0
KTA1 101406Z 16018KT 23/19 A3007 RMK A01 T02250194  RH  083%=      5-min Rain = 0
KTA1 101407Z 15016KT 23/19 A3007 RMK A01 T02250194  RH  083%=      5-min Rain = 0
KTA1 101408Z 16013KT 22/19 A3007 RMK A01 T02240193  RH  083%=      5-min Rain = 0
KTA1 101409Z 15012G19KT 22/19 A3007 RMK A01 T02240193  RH  083%=      5-min Rain = 0
KTA1 101410Z 15017KT 22/19 A3007 RMK A01 T02240194  RH  083%=      5-min Rain = 0
KTA1 101411Z 16015KT 22/19 A3007 RMK A01 T02240193  RH  083%=      5-min Rain = 0
KTA1 101412Z 16014KT 22/19 A3007 RMK A01 T02240193  RH  083%=      5-min Rain = 0
KTA1 101413Z 16015KT 22/19 A3007 RMK A01 T02240194  RH  083%=      5-min Rain = 0
KTA1 101414Z 16013KT 23/19 A3007 RMK A01 T02250194  RH  083%=      5-min Rain = 0
KTA1 101415Z 16012KT 22/19 A3007 RMK A01 T02240194  RH  083%=      5-min Rain = 0
KTA1 101416Z 16011KT 22/19 A3007 RMK A01 T02240194  RH  083%=      5-min Rain = 0
KTA1 101417Z 15012KT 23/20 A3007 RMK A01 T02250195  RH  083%=      5-min Rain = 0
KTA1 101418Z 15013KT 23/20 A3007 RMK A01 T02250195  RH  083%=      5-min Rain = 0
KTA1 101419Z 15013KT 23/20 A3007 RMK A01 T02250195  RH  083%=      5-min Rain = 0
KTA1 101420Z 16013KT 23/20 A3007 RMK A01 T02250195  RH  083%=      5-min Rain = 0
KTA1 101421Z 16013KT 23/20 A3007 RMK A01 T02260195  RH  083%=      5-min Rain = 0
KTA1 101422Z 16014KT 23/20 A3007 RMK A01 T02260195  RH  083%=      5-min Rain = 0
KTA1 101423Z 16012KT 23/20 A3007 RMK A01 T02260195  RH  083%=      5-min Rain = 0
KTA1 101424Z 16012G17KT 23/20 A3008 RMK A01 T02260196  RH  083%=      5-min Rain = 0
KTA1 101425Z 17017KT 23/20 A3007 RMK A01 T02270195  RH  082%=      5-min Rain = 0
KTA1 101426Z 16016KT 23/20 A3007 RMK A01 T02270195  RH  082%=      5-min Rain = 0
KTA1 101427Z 16014G19KT 23/20 A3008 RMK A01 T02270195  RH  083%=      5-min Rain = 0
KTA1 101428Z 16014KT 23/20 A3008 RMK A01 T02270196  RH  083%=      5-min Rain = 0
KTA1 101429Z 16011KT 23/20 A3008 RMK A01 T02270196  RH  082%=      5-min Rain = 0
KTA1 101430Z 17010KT 23/20 A3008 RMK A01 T02280196  RH  082%=      5-min Rain = 0
KTA1 101431Z 17012G18KT 23/20 A3008 RMK A01 T02290197  RH  082%=      5-min Rain = 0
KTA1 101432Z 15015KT 23/20 A3008 RMK A01 T02290197  RH  082%=      5-min Rain = 0
KTA1 101433Z 16015KT 23/20 A3008 RMK A01 T02290197  RH  082%=      5-min Rain = 0
KTA1 101434Z 15017G22KT 23/20 A3008 RMK A01 T02290196  RH  082%=      5-min Rain = 0
KTA1 101435Z 15019G24KT 23/20 A3008 RMK A01 T02290196  RH  082%=      5-min Rain = 0
KTA1 101436Z 16014KT 23/20 A3008 RMK A01 T02290196  RH  082%=      5-min Rain = 0
KTA1 101437Z 16015G20KT 23/20 A3008 RMK A01 T02290197  RH  082%=      5-min Rain = 0
KTA1 101438Z 16017KT 23/20 A3008 RMK A01 T02290196  RH  082%=      5-min Rain = 0
KTA1 101439Z 16017KT 23/20 A3008 RMK A01 T02290196  RH  082%=      5-min Rain = 0
KTA1 101440Z 16016KT 23/20 A3008 RMK A01 T02290196  RH  082%=      5-min Rain = 0
KTA1 101441Z 16012KT 23/20 A3008 RMK A01 T02290196  RH  082%=      5-min Rain = 0
KTA1 101442Z 17014G19KT 23/20 A3008 RMK A01 T02300197  RH  082%=      5-min Rain = 0
KTA1 101443Z 16012G17KT 23/20 A3008 RMK A01 T02300197  RH  082%=      5-min Rain = 0
KTA1 101444Z 16016KT 23/20 A3008 RMK A01 T02310197  RH  081%=      5-min Rain = 0
KTA1 101445Z 17018KT 23/20 A3008 RMK A01 T02310197  RH  081%=      5-min Rain = 0
KTA1 101446Z 16018KT 23/20 A3008 RMK A01 T02310196  RH  081%=      5-min Rain = 0
KTA1 101447Z 17017G22KT 23/20 A3008 RMK A01 T02300197  RH  081%=      5-min Rain = 0
KTA1 101448Z 16017KT 23/20 A3008 RMK A01 T02300197  RH  081%=      5-min Rain = 0
KTA1 101449Z 16015KT 23/20 A3008 RMK A01 T02310197  RH  081%=      5-min Rain = 0
KTA1 101450Z 16017G22KT 23/20 A3008 RMK A01 T02310197  RH  081%=      5-min Rain = 0
KTA1 101451Z 16014KT 23/20 A3008 RMK A01 T02310197  RH  081%=      5-min Rain = 0
KTA1 101452Z 16016G23KT 23/20 A3008 RMK A01 T02320197  RH  081%=      5-min Rain = 0
KTA1 101453Z 16018G23KT 23/20 A3008 RMK A01 T02320197  RH  081%=      5-min Rain = 0
KTA1 101454Z 17014KT 23/20 A3008 RMK A01 T02320197  RH  081%=      5-min Rain = 0
KTA1 101455Z 16013G18KT 23/20 A3009 RMK A01 T02330198  RH  081%=      5-min Rain = 0
KTA1 101456Z 16015KT 23/20 A3009 RMK A01 T02330198  RH  081%=      5-min Rain = 0
KTA1 101457Z 16013KT 23/20 A3009 RMK A01 T02340198  RH  080%=      5-min Rain = 0
KTA1 101458Z 16015G20KT 23/20 A3009 RMK A01 T02340198  RH  080%=      5-min Rain = 0
KTA1 101459Z 16016KT 23/20 A3009 RMK A01 T02340198  RH  080%=      5-min Rain = 0
KTA1 101500Z 16016KT 23/20 A3009 RMK A01 T02340198  RH  080%=      5-min Rain = 0
KTA1 101501Z 16015KT 23/20 A3009 RMK A01 T02340198  RH  080%=      5-min Rain = 0
KTA1 101502Z 15013KT 23/20 A3009 RMK A01 T02340199  RH  080%=      5-min Rain = 0
KTA1 101503Z 16014KT 23/20 A3009 RMK A01 T02340199  RH  080%=      5-min Rain = 0
KTA1 101504Z 15013KT 24/20 A3009 RMK A01 T02350199  RH  080%=      5-min Rain = 0
KTA1 101505Z 15012KT 24/20 A3009 RMK A01 T02350199  RH  080%=      5-min Rain = 0
KTA1 101506Z 15014KT 24/20 A3009 RMK A01 T02360199  RH  080%=      5-min Rain = 0
KTA1 101507Z 16014KT 24/20 A3009 RMK A01 T02360199  RH  080%=      5-min Rain = 0
KTA1 101508Z 15013KT 24/20 A3009 RMK A01 T02360199  RH  080%=      5-min Rain = 0
KTA1 101509Z 15014G19KT 24/20 A3009 RMK A01 T02360199  RH  080%=      5-min Rain = 0
KTA1 101510Z 16016KT 24/20 A3009 RMK A01 T02360199  RH  079%=      5-min Rain = 0
KTA1 101511Z 16014KT 24/20 A3009 RMK A01 T02360198  RH  079%=      5-min Rain = 0
KTA1 101512Z 16014KT 24/20 A3009 RMK A01 T02370198  RH  079%=      5-min Rain = 0
KTA1 101513Z 16016KT 24/20 A3009 RMK A01 T02370198  RH  079%=      5-min Rain = 0
KTA1 101514Z 16015KT 24/20 A3009 RMK A01 T02370198  RH  079%=      5-min Rain = 0
KTA1 101515Z 16017KT 24/20 A3009 RMK A01 T02380198  RH  079%=      5-min Rain = 0
KTA1 101516Z 16017KT 24/20 A3009 RMK A01 T02380197  RH  078%=      5-min Rain = 0
KTA1 101517Z 16017KT 24/20 A3009 RMK A01 T02380198  RH  078%=      5-min Rain = 0
KTA1 101518Z 16018KT 24/20 A3009 RMK A01 T02370198  RH  078%=      5-min Rain = 0
KTA1 101519Z 15017KT 24/20 A3009 RMK A01 T02370197  RH  078%=      5-min Rain = 0
KTA1 101520Z 16015KT 24/20 A3009 RMK A01 T02370197  RH  078%=      5-min Rain = 0
KTA1 101521Z 16016KT 24/20 A301 RMK A01 T02370197  RH  078%=      5-min Rain = 0
KTA1 101522Z 16016KT 24/20 A3009 RMK A01 T02370197  RH  078%=      5-min Rain = 0
KTA1 101523Z 15015G20KT 24/20 A301 RMK A01 T02380197  RH  078%=      5-min Rain = 0
KTA1 101524Z 16015G23KT 24/20 A3009 RMK A01 T02380197  RH  078%=      5-min Rain = 0
KTA1 101525Z 16016KT 24/20 A3009 RMK A01 T02380197  RH  078%=      5-min Rain = 0
KTA1 101526Z 16013KT 24/20 A3009 RMK A01 T02390198  RH  078%=      5-min Rain = 0
KTA1 101527Z 15014KT 24/20 A3009 RMK A01 T02390198  RH  078%=      5-min Rain = 0
KTA1 101528Z 16014G19KT 24/20 A3009 RMK A01 T02400198  RH  077%=      5-min Rain = 0
KTA1 101529Z 16011KT 24/20 A3009 RMK A01 T02400198  RH  077%=      5-min Rain = 0
KTA1 101530Z 15012KT 24/20 A3009 RMK A01 T02410199  RH  077%=      5-min Rain = 0
KTA1 101531Z 16016KT 24/20 A3009 RMK A01 T02420198  RH  077%=      5-min Rain = 0
KTA1 101532Z 16012KT 24/20 A3009 RMK A01 T02420198  RH  077%=      5-min Rain = 0
KTA1 101533Z 16015KT 24/20 A3009 RMK A01 T02420198  RH  077%=      5-min Rain = 0
KTA1 101534Z 17014KT 24/20 A3009 RMK A01 T02420199  RH  077%=      5-min Rain = 0
KTA1 101535Z 17012G17KT 24/20 A3009 RMK A01 T02420199  RH  077%=      5-min Rain = 0
KTA1 101536Z 16013KT 24/20 A3009 RMK A01 T02420198  RH  077%=      5-min Rain = 0
KTA1 101537Z 16010KT 24/20 A3009 RMK A01 T02430199  RH  076%=      5-min Rain = 0
KTA1 101538Z 16015KT 24/20 A3009 RMK A01 T02440199  RH  076%=      5-min Rain = 0
KTA1 101539Z 17016KT 24/20 A3009 RMK A01 T02440198  RH  076%=      5-min Rain = 0
KTA1 101540Z 17015KT 24/20 A3009 RMK A01 T02430198  RH  076%=      5-min Rain = 0
KTA1 101541Z 17014KT 24/20 A3009 RMK A01 T02420198  RH  076%=      5-min Rain = 0
KTA1 101542Z 17014G19KT 24/20 A3009 RMK A01 T02420199  RH  077%=      5-min Rain = 0
KTA1 101543Z 17013G18KT 24/20 A3009 RMK A01 T02420198  RH  076%=      5-min Rain = 0
KTA1 101544Z 17016KT 24/20 A3009 RMK A01 T02420198  RH  076%=      5-min Rain = 0
KTA1 101545Z 16016KT 24/20 A3009 RMK A01 T02420198  RH  076%=      5-min Rain = 0
KTA1 101546Z 16013KT 24/20 A3009 RMK A01 T02420198  RH  076%=      5-min Rain = 0
KTA1 101547Z 16015KT 24/20 A301 RMK A01 T02420199  RH  077%=      5-min Rain = 0
KTA1 101548Z 16015KT 24/20 A301 RMK A01 T02430198  RH  076%=      5-min Rain = 0
KTA1 101549Z 16012G17KT 24/20 A301 RMK A01 T02430199  RH  076%=      5-min Rain = 0
KTA1 101550Z 16014KT 24/20 A301 RMK A01 T02440199  RH  076%=      5-min Rain = 0
KTA1 101551Z 15014G20KT 24/20 A301 RMK A01 T02440199  RH  076%=      5-min Rain = 0
KTA1 101552Z 15017KT 24/20 A301 RMK A01 T02440198  RH  076%=      5-min Rain = 0
KTA1 101553Z 15014KT 24/20 A301 RMK A01 T02440198  RH  076%=      5-min Rain = 0
KTA1 101554Z 15015KT 24/20 A301 RMK A01 T02440198  RH  076%=      5-min Rain = 0
KTA1 101555Z 15013KT 24/20 A301 RMK A01 T02440199  RH  076%=      5-min Rain = 0
KTA1 101556Z 16016KT 25/20 A301 RMK A01 T02450198  RH  075%=      5-min Rain = 0
KTA1 101557Z 16016KT 25/20 A301 RMK A01 T02450198  RH  075%=      5-min Rain = 0
KTA1 101558Z 16014KT 25/20 A301 RMK A01 T02450197  RH  075%=      5-min Rain = 0
KTA1 101559Z 17014KT 25/20 A301 RMK A01 T02450198  RH  075%=      5-min Rain = 0
KTA1 101600Z 16015KT 25/20 A301 RMK A01 T02460198  RH  075%=      5-min Rain = 0
KTA1 101601Z 16014KT 25/20 A301 RMK A01 T02460198  RH  075%=      5-min Rain = 0
KTA1 101602Z 17015G20KT 25/20 A301 RMK A01 T02470198  RH  074%=      5-min Rain = 0
KTA1 101603Z 16016G21KT 25/20 A301 RMK A01 T02470198  RH  074%=      5-min Rain = 0
KTA1 101604Z 16018G24KT 25/20 A301 RMK A01 T02480197  RH  073%=      5-min Rain = 0
KTA1 101605Z 16015KT 25/20 A301 RMK A01 T02480197  RH  074%=      5-min Rain = 0
KTA1 101606Z 16015G20KT 25/20 A301 RMK A01 T02480198  RH  074%=      5-min Rain = 0
KTA1 101607Z 16014KT 25/20 A301 RMK A01 T02480198  RH  073%=      5-min Rain = 0
KTA1 101608Z 15015KT 25/20 A301 RMK A01 T02490198  RH  073%=      5-min Rain = 0
KTA1 101609Z 16013KT 25/20 A301 RMK A01 T02490198  RH  073%=      5-min Rain = 0
KTA1 101610Z 16012KT 25/20 A301 RMK A01 T02490199  RH  074%=      5-min Rain = 0
KTA1 101611Z 16012G19KT 25/20 A301 RMK A01 T02490199  RH  074%=      5-min Rain = 0
KTA1 101612Z 16016KT 25/20 A301 RMK A01 T02500198  RH  073%=      5-min Rain = 0
KTA1 101613Z 16013G20KT 25/20 A301 RMK A01 T02500198  RH  073%=      5-min Rain = 0
KTA1 101614Z 16018KT 25/20 A301 RMK A01 T02500197  RH  073%=      5-min Rain = 0
KTA1 101615Z 16014G19KT 25/20 A301 RMK A01 T02500197  RH  073%=      5-min Rain = 0
KTA1 101616Z 16015G21KT 25/20 A301 RMK A01 T02490196  RH  072%=      5-min Rain = 0
KTA1 101617Z 16016KT 25/20 A3009 RMK A01 T02500196  RH  072%=      5-min Rain = 0
KTA1 101618Z 16015KT 25/20 A301 RMK A01 T02500196  RH  072%=      5-min Rain = 0
KTA1 101619Z 16017KT 25/20 A301 RMK A01 T02500196  RH  072%=      5-min Rain = 0
KTA1 101620Z 17014KT 25/20 A301 RMK A01 T02500196  RH  072%=      5-min Rain = 0
KTA1 101621Z 17018KT 25/20 A3009 RMK A01 T02510196  RH  072%=      5-min Rain = 0
KTA1 101622Z 17016G21KT 25/20 A3009 RMK A01 T02510196  RH  071%=      5-min Rain = 0
KTA1 101623Z 16016KT 25/20 A301 RMK A01 T02510196  RH  072%=      5-min Rain = 0
KTA1 101624Z 16015KT 25/20 A3009 RMK A01 T02510197  RH  072%=      5-min Rain = 0
KTA1 101625Z 15017KT 25/20 A301 RMK A01 T02510196  RH  072%=      5-min Rain = 0
KTA1 101626Z 15017G23KT 25/20 A301 RMK A01 T02510197  RH  072%=      5-min Rain = 0
KTA1 101627Z 16019KT 25/20 A3009 RMK A01 T02510196  RH  071%=      5-min Rain = 0
KTA1 101628Z 16017KT 25/20 A3009 RMK A01 T02510196  RH  071%=      5-min Rain = 0
KTA1 101629Z 16014KT 25/20 A3009 RMK A01 T02510197  RH  072%=      5-min Rain = 0
KTA1 101630Z 16015KT 25/20 A3009 RMK A01 T02530197  RH  071%=      5-min Rain = 0
KTA1 101631Z 16014KT 25/20 A3009 RMK A01 T02540197  RH  071%=      5-min Rain = 0
KTA1 101632Z 15013G18KT 26/20 A3009 RMK A01 T02550198  RH  070%=      5-min Rain = 0
KTA1 101633Z 16013KT 26/20 A3009 RMK A01 T02570198  RH  070%=      5-min Rain = 0
KTA1 101634Z 16015G21KT 26/20 A3009 RMK A01 T02580197  RH  069%=      5-min Rain = 0
KTA1 101635Z 16015G21KT 26/20 A3009 RMK A01 T02590198  RH  069%=      5-min Rain = 0
KTA1 101636Z 16016KT 26/20 A3009 RMK A01 T02600196  RH  068%=      5-min Rain = 0
KTA1 101637Z 15016KT 26/20 A3009 RMK A01 T02600197  RH  068%=      5-min Rain = 0
KTA1 101638Z 16017G22KT 26/20 A3009 RMK A01 T02590196  RH  068%=      5-min Rain = 0
KTA1 101639Z 17019KT 26/20 A3009 RMK A01 T02590195  RH  068%=      5-min Rain = 0
KTA1 101640Z 16015KT 26/20 A3009 RMK A01 T02580195  RH  068%=      5-min Rain = 0
KTA1 101641Z 16015KT 26/20 A3009 RMK A01 T02580195  RH  068%=      5-min Rain = 0
KTA1 101642Z 16016G21KT 26/20 A3009 RMK A01 T02590195  RH  068%=      5-min Rain = 0
KTA1 101643Z 16014G19KT 26/20 A3009 RMK A01 T02590196  RH  068%=      5-min Rain = 0
KTA1 101644Z 15010KT 26/20 A3009 RMK A01 T02600198  RH  068%=      5-min Rain = 0
KTA1 101645Z 15012KT 26/20 A3009 RMK A01 T02630199  RH  068%=      5-min Rain = 0
KTA1 101646Z 16013G20KT 27/20 A3009 RMK A01 T02650199  RH  067%=      5-min Rain = 0
KTA1 101647Z 16017KT 27/20 A3009 RMK A01 T02650198  RH  066%=      5-min Rain = 0
KTA1 101648Z 16014KT 26/20 A3009 RMK A01 T02640197  RH  067%=      5-min Rain = 0
KTA1 101649Z 14016KT 26/20 A3009 RMK A01 T02630197  RH  067%=      5-min Rain = 0
KTA1 101650Z 14017G22KT 26/20 A3009 RMK A01 T02630196  RH  066%=      5-min Rain = 0
KTA1 101651Z 14015G20KT 26/20 A3009 RMK A01 T02630197  RH  067%=      5-min Rain = 0
KTA1 101652Z 15017KT 26/20 A3009 RMK A01 T02620198  RH  067%=      5-min Rain = 0
KTA1 101653Z 16014G19KT 26/20 A3009 RMK A01 T02620195  RH  067%=      5-min Rain = 0
KTA1 101654Z 15014KT 26/20 A3009 RMK A01 T02620196  RH  067%=      5-min Rain = 0
KTA1 101655Z 15016KT 26/20 A3009 RMK A01 T02630196  RH  067%=      5-min Rain = 0
KTA1 101656Z 16015KT 26/20 A3009 RMK A01 T02630196  RH  067%=      5-min Rain = 0
KTA1 101657Z 16015G21KT 26/20 A3009 RMK A01 T02630195  RH  066%=      5-min Rain = 0
KTA1 101658Z 15019KT 26/19 A3009 RMK A01 T02620194  RH  066%=      5-min Rain = 0
KTA1 101659Z 15019G24KT 26/19 A3009 RMK A01 T02620194  RH  066%=      5-min Rain = 0
KTA1 101700Z 16015G21KT 26/19 A3009 RMK A01 T02620194  RH  066%=      5-min Rain = 0
KTA1 101701Z 15017KT 26/19 A3009 RMK A01 T02620194  RH  066%=      5-min Rain = 0
KTA1 101702Z 16018G24KT 26/19 A3009 RMK A01 T02620194  RH  066%=      5-min Rain = 0
KTA1 101703Z 17014G19KT 26/20 A3009 RMK A01 T02630195  RH  066%=      5-min Rain = 0
KTA1 101704Z 15015KT 27/20 A3009 RMK A01 T02650195  RH  066%=      5-min Rain = 0
KTA1 101705Z 16016KT 27/20 A3009 RMK A01 T02660196  RH  065%=      5-min Rain = 0
KTA1 101706Z 15016G21KT 27/20 A3009 RMK A01 T02660197  RH  066%=      5-min Rain = 0
KTA1 101707Z 15016KT 27/20 A3009 RMK A01 T02660196  RH  065%=      5-min Rain = 0
KTA1 101708Z 15017G22KT 27/20 A3009 RMK A01 T02660195  RH  065%=      5-min Rain = 0
KTA1 101709Z 15017G22KT 27/20 A3009 RMK A01 T02650195  RH  065%=      5-min Rain = 0
KTA1 101710Z 15017KT 27/19 A3009 RMK A01 T02650194  RH  065%=      5-min Rain = 0
KTA1 101711Z 16020G25KT 27/19 A3009 RMK A01 T02660192  RH  064%=      5-min Rain = 0
KTA1 101712Z 16019KT 27/19 A3009 RMK A01 T02670192  RH  064%=      5-min Rain = 0
KTA1 101713Z 17016KT 27/19 A3009 RMK A01 T02670192  RH  064%=      5-min Rain = 0
KTA1 101714Z 17017G22KT 27/19 A3009 RMK A01 T02680193  RH  063%=      5-min Rain = 0
KTA1 101715Z 17017KT 27/19 A3009 RMK A01 T02690193  RH  063%=      5-min Rain = 0
KTA1 101716Z 17017KT 27/20 A3009 RMK A01 T02700195  RH  063%=      5-min Rain = 0
KTA1 101717Z 17015G20KT 27/20 A3009 RMK A01 T02720195  RH  062%=      5-min Rain = 0
KTA1 101718Z 16014G19KT 27/20 A3009 RMK A01 T02730196  RH  063%=      5-min Rain = 0
KTA1 101719Z 16016KT 27/20 A3009 RMK A01 T02720195  RH  063%=      5-min Rain = 0
KTA1 101720Z 15018KT 27/19 A3009 RMK A01 T02710194  RH  063%=      5-min Rain = 0
KTA1 101721Z 15018KT 27/19 A3009 RMK A01 T02690194  RH  064%=      5-min Rain = 0
KTA1 101722Z 16017KT 27/19 A3008 RMK A01 T02670193  RH  064%=      5-min Rain = 0
KTA1 101723Z 16014KT 27/19 A3009 RMK A01 T02670194  RH  064%=      5-min Rain = 0
KTA1 101724Z 15018KT 27/19 A3009 RMK A01 T02670193  RH  064%=      5-min Rain = 0
KTA1 101725Z 17018KT 27/19 A3008 RMK A01 T02680193  RH  064%=      5-min Rain = 0
KTA1 101726Z 16017KT 27/19 A3008 RMK A01 T02680193  RH  063%=      5-min Rain = 0
KTA1 101727Z 16017KT 27/19 A3008 RMK A01 T02680193  RH  063%=      5-min Rain = 0
KTA1 101728Z 15015KT 27/19 A3008 RMK A01 T02680193  RH  064%=      5-min Rain = 0
KTA1 101729Z 15013G18KT 27/19 A3008 RMK A01 T02680194  RH  064%=      5-min Rain = 0
KTA1 101730Z 15015KT 27/20 A3008 RMK A01 T02700196  RH  064%=      5-min Rain = 0
KTA1 101731Z 15015KT 27/20 A3008 RMK A01 T02710195  RH  063%=      5-min Rain = 0
KTA1 101732Z 15015KT 27/20 A3008 RMK A01 T02710195  RH  063%=      5-min Rain = 0
KTA1 101733Z 17015G20KT 27/20 A3008 RMK A01 T02710196  RH  064%=      5-min Rain = 0
KTA1 101734Z 16018KT 27/19 A3008 RMK A01 T02710193  RH  062%=      5-min Rain = 0
KTA1 101735Z 16016KT 27/19 A3008 RMK A01 T02700193  RH  063%=      5-min Rain = 0
KTA1 101736Z 16016KT 27/19 A3008 RMK A01 T02690192  RH  063%=      5-min Rain = 0
KTA1 101737Z 16016KT 27/19 A3008 RMK A01 T02690193  RH  063%=      5-min Rain = 0
KTA1 101738Z 16012KT 27/19 A3008 RMK A01 T02680194  RH  064%=      5-min Rain = 0
KTA1 101739Z 17017KT 27/19 A3008 RMK A01 T02690193  RH  063%=      5-min Rain = 0
KTA1 101740Z 16018KT 27/19 A3008 RMK A01 T02690193  RH  063%=      5-min Rain = 0
KTA1 101741Z 16018KT 27/19 A3008 RMK A01 T02690193  RH  063%=      5-min Rain = 0
KTA1 101742Z 16011KT 27/19 A3008 RMK A01 T02680193  RH  064%=      5-min Rain = 0
KTA1 101743Z 17015KT 27/19 A3008 RMK A01 T02690194  RH  064%=      5-min Rain = 0
KTA1 101744Z 16016KT 27/19 A3008 RMK A01 T02700194  RH  063%=      5-min Rain = 0
KTA1 101745Z 16017G22KT 27/19 A3008 RMK A01 T02700194  RH  063%=      5-min Rain = 0
KTA1 101746Z 16015G21KT 27/19 A3008 RMK A01 T02700193  RH  063%=      5-min Rain = 0
KTA1 101747Z 17016G21KT 27/19 A3008 RMK A01 T02710192  RH  062%=      5-min Rain = 0
KTA1 101748Z 16011KT 27/19 A3008 RMK A01 T02710193  RH  062%=      5-min Rain = 0
KTA1 101749Z 15017KT 27/19 A3008 RMK A01 T02730194  RH  062%=      5-min Rain = 0
KTA1 101750Z 16017KT 27/19 A3008 RMK A01 T02740194  RH  062%=      5-min Rain = 0
KTA1 101751Z 15016G21KT 27/19 A3008 RMK A01 T02730194  RH  062%=      5-min Rain = 0
KTA1 101752Z 15019G24KT 27/19 A3008 RMK A01 T02720194  RH  062%=      5-min Rain = 0
KTA1 101753Z 15016KT 27/19 A3008 RMK A01 T02720193  RH  062%=      5-min Rain = 0
KTA1 101754Z 16017KT 27/19 A3008 RMK A01 T02720194  RH  062%=      5-min Rain = 0
KTA1 101755Z 15016KT 27/19 A3008 RMK A01 T02730193  RH  062%=      5-min Rain = 0
KTA1 101756Z 16014KT 27/19 A3008 RMK A01 T02730194  RH  062%=      5-min Rain = 0
KTA1 101757Z 17016KT 27/19 A3008 RMK A01 T02740194  RH  062%=      5-min Rain = 0
KTA1 101758Z 17017KT 28/19 A3008 RMK A01 T02760194  RH  061%=      5-min Rain = 0
KTA1 101759Z 16017KT 28/19 A3008 RMK A01 T02770194  RH  061%=      5-min Rain = 0
KTA1 101800Z 17016KT 28/19 A3008 RMK A01 T02770194  RH  061%=      5-min Rain = 0
KTA1 101801Z 16016G21KT 28/19 A3008 RMK A01 T02760194  RH  061%=      5-min Rain = 0
KTA1 101802Z 15017G22KT 28/20 A3008 RMK A01 T02760195  RH  061%=      5-min Rain = 0
KTA1 101803Z 17014G20KT 28/20 A3008 RMK A01 T02780195  RH  060%=      5-min Rain = 0
KTA1 101804Z 16018KT 28/19 A3008 RMK A01 T02800194  RH  059%=      5-min Rain = 0
KTA1 101805Z 16016KT 28/20 A3008 RMK A01 T02810195  RH  060%=      5-min Rain = 0
KTA1 101806Z 16015G20KT 28/20 A3008 RMK A01 T02810195  RH  059%=      5-min Rain = 0
KTA1 101807Z 16016KT 28/20 A3008 RMK A01 T02800195  RH  060%=      5-min Rain = 0
KTA1 101808Z 17013KT 28/19 A3008 RMK A01 T02800194  RH  060%=      5-min Rain = 0
KTA1 101809Z 16011KT 28/20 A3007 RMK A01 T02800195  RH  060%=      5-min Rain = 0
KTA1 101810Z 16015KT 28/20 A3007 RMK A01 T02840196  RH  059%=      5-min Rain = 0
KTA1 101811Z 15013KT 29/20 A3007 RMK A01 T02850195  RH  058%=      5-min Rain = 0
KTA1 101812Z 15015G20KT 29/20 A3007 RMK A01 T02860196  RH  058%=      5-min Rain = 0
KTA1 101813Z 16017KT 29/19 A3007 RMK A01 T02870194  RH  057%=      5-min Rain = 0
KTA1 101814Z 17018KT 29/19 A3007 RMK A01 T02860194  RH  057%=      5-min Rain = 0
KTA1 101815Z 16016KT 29/20 A3007 RMK A01 T02850195  RH  058%=      5-min Rain = 0
KTA1 101816Z 15014G19KT 29/19 A3007 RMK A01 T02850194  RH  058%=      5-min Rain = 0
KTA1 101817Z 15017KT 29/19 A3007 RMK A01 T02850194  RH  058%=      5-min Rain = 0
KTA1 101818Z 16018G23KT 28/19 A3007 RMK A01 T02830193  RH  058%=      5-min Rain = 0
KTA1 101819Z 16014G20KT 28/19 A3007 RMK A01 T02810193  RH  059%=      5-min Rain = 0
KTA1 101820Z 16016KT 28/19 A3007 RMK A01 T02820193  RH  058%=      5-min Rain = 0
KTA1 101821Z 16018KT 28/19 A3007 RMK A01 T02830193  RH  058%=      5-min Rain = 0
KTA1 101822Z 18016KT 28/19 A3007 RMK A01 T02830191  RH  057%=      5-min Rain = 0
KTA1 101823Z 17016KT 28/19 A3007 RMK A01 T02840190  RH  057%=      5-min Rain = 0
KTA1 101824Z 17018G24KT 29/19 A3007 RMK A01 T02850191  RH  057%=      5-min Rain = 0
KTA1 101825Z 17018KT 29/19 A3007 RMK A01 T02860190  RH  056%=      5-min Rain = 0
KTA1 101826Z 17015G20KT 29/19 A3007 RMK A01 T02860190  RH  056%=      5-min Rain = 0
KTA1 101827Z 16017KT 29/19 A3007 RMK A01 T02870191  RH  056%=      5-min Rain = 0
KTA1 101828Z 17017KT 29/19 A3007 RMK A01 T02880192  RH  056%=      5-min Rain = 0
KTA1 101829Z 15016KT 29/19 A3007 RMK A01 T02890193  RH  056%=      5-min Rain = 0
KTA1 101830Z 15014G19KT 29/19 A3007 RMK A01 T02890193  RH  056%=      5-min Rain = 0
KTA1 101831Z 15017KT 29/19 A3007 RMK A01 T02890192  RH  056%=      5-min Rain = 0
KTA1 101832Z 16016G21KT 29/19 A3007 RMK A01 T02900192  RH  055%=      5-min Rain = 0
KTA1 101833Z 15015KT 29/19 A3007 RMK A01 T02900191  RH  055%=      5-min Rain = 0
KTA1 101834Z 16014KT 29/19 A3007 RMK A01 T02910193  RH  055%=      5-min Rain = 0
KTA1 101835Z 18014KT 29/19 A3007 RMK A01 T02930192  RH  054%=      5-min Rain = 0
KTA1 101836Z 18017KT 29/19 A3007 RMK A01 T02920191  RH  054%=      5-min Rain = 0
KTA1 101837Z 17017KT 29/19 A3007 RMK A01 T02910189  RH  054%=      5-min Rain = 0
KTA1 101838Z 18017KT 29/19 A3007 RMK A01 T02900189  RH  055%=      5-min Rain = 0
KTA1 101839Z 18015KT 29/19 A3007 RMK A01 T02870188  RH  055%=      5-min Rain = 0
KTA1 101840Z 16014KT 29/19 A3007 RMK A01 T02870190  RH  056%=      5-min Rain = 0
KTA1 101841Z 15014G19KT 29/19 A3007 RMK A01 T02880190  RH  055%=      5-min Rain = 0
KTA1 101842Z 17016G22KT 29/19 A3007 RMK A01 T02890190  RH  055%=      5-min Rain = 0
KTA1 101843Z 17017KT 29/19 A3007 RMK A01 T02900189  RH  054%=      5-min Rain = 0
KTA1 101844Z 18015KT 29/19 A3007 RMK A01 T02880190  RH  055%=      5-min Rain = 0
KTA1 101845Z 16017G22KT 29/19 A3007 RMK A01 T02870189  RH  055%=      5-min Rain = 0
KTA1 101846Z 16015G20KT 29/19 A3007 RMK A01 T02870189  RH  055%=      5-min Rain = 0
KTA1 101847Z 17015KT 29/19 A3007 RMK A01 T02890190  RH  055%=      5-min Rain = 0
KTA1 101848Z 18014KT 29/19 A3007 RMK A01 T02900188  RH  054%=      5-min Rain = 0
KTA1 101849Z 17019KT 29/19 A3007 RMK A01 T02900189  RH  054%=      5-min Rain = 0
KTA1 101850Z 17016KT 29/19 A3007 RMK A01 T02900188  RH  054%=      5-min Rain = 0
KTA1 101851Z 16014G20KT 29/19 A3007 RMK A01 T02890189  RH  055%=      5-min Rain = 0
KTA1 101852Z 18014G19KT 29/19 A3007 RMK A01 T02900189  RH  054%=      5-min Rain = 0
KTA1 101853Z 17014KT 29/19 A3007 RMK A01 T02920189  RH  054%=      5-min Rain = 0
KTA1 101854Z 18013G19KT 29/19 A3007 RMK A01 T02920190  RH  054%=      5-min Rain = 0
KTA1 101855Z 18016KT 29/19 A3007 RMK A01 T02930188  RH  053%=      5-min Rain = 0
KTA1 101856Z 17016KT 29/19 A3007 RMK A01 T02930187  RH  053%=      5-min Rain = 0
KTA1 101857Z 16015G20KT 29/19 A3007 RMK A01 T02940185  RH  052%=      5-min Rain = 0
KTA1 101858Z 16015KT 30/19 A3007 RMK A01 T02950186  RH  052%=      5-min Rain = 0
KTA1 101859Z 16015KT 30/19 A3007 RMK A01 T02950185  RH  052%=      5-min Rain = 0
KTA1 101900Z 17017KT 30/19 A3007 RMK A01 T02950185  RH  051%=      5-min Rain = 0
KTA1 101901Z 17017KT 29/18 A3007 RMK A01 T02940184  RH  051%=      5-min Rain = 0
KTA1 101902Z 17018G23KT 30/19 A3007 RMK A01 T02950188  RH  053%=      5-min Rain = 0
KTA1 101903Z 17016KT 30/19 A3007 RMK A01 T02950188  RH  053%=      5-min Rain = 0
KTA1 101904Z 18015KT 30/19 A3006 RMK A01 T02970189  RH  052%=      5-min Rain = 0
KTA1 101905Z 17017KT 30/19 A3006 RMK A01 T02980189  RH  052%=      5-min Rain = 0
KTA1 101906Z 16015G20KT 29/19 A3006 RMK A01 T02940189  RH  053%=      5-min Rain = 0
KTA1 101907Z 16015KT 29/19 A3006 RMK A01 T02920189  RH  054%=      5-min Rain = 0
KTA1 101908Z 17019KT 29/19 A3006 RMK A01 T02930189  RH  054%=      5-min Rain = 0
KTA1 101909Z 17015KT 30/19 A3006 RMK A01 T02960188  RH  053%=      5-min Rain = 0
KTA1 101910Z 17018KT 30/19 A3006 RMK A01 T02970188  RH  052%=      5-min Rain = 0
KTA1 101911Z 18013KT 30/19 A3006 RMK A01 T02960188  RH  052%=      5-min Rain = 0
KTA1 101912Z 17016KT 30/19 A3006 RMK A01 T02970188  RH  052%=      5-min Rain = 0
KTA1 101913Z 17017KT 30/19 A3006 RMK A01 T02990186  RH  051%=      5-min Rain = 0
KTA1 101914Z 17014G19KT 30/19 A3006 RMK A01 T02990186  RH  051%=      5-min Rain = 0
KTA1 101915Z 16016KT 30/18 A3006 RMK A01 T03010184  RH  049%=      5-min Rain = 0
KTA1 101916Z 17016KT 30/18 A3006 RMK A01 T03020184  RH  049%=      5-min Rain = 0
KTA1 101917Z 16018G23KT 30/19 A3006 RMK A01 T03000185  RH  050%=      5-min Rain = 0
KTA1 101918Z 16017G23KT 30/19 A3006 RMK A01 T03000186  RH  050%=      5-min Rain = 0
KTA1 101919Z 15015KT 30/19 A3006 RMK A01 T03000187  RH  051%=      5-min Rain = 0
KTA1 101920Z 15014G19KT 30/19 A3006 RMK A01 T02980187  RH  051%=      5-min Rain = 0
KTA1 101921Z 15015KT 30/19 A3006 RMK A01 T02970188  RH  052%=      5-min Rain = 0
KTA1 101922Z 16016G22KT 30/19 A3006 RMK A01 T02960185  RH  051%=      5-min Rain = 0
KTA1 101923Z 17017KT 30/18 A3006 RMK A01 T02970183  RH  050%=      5-min Rain = 0
KTA1 101924Z 16017KT 30/18 A3006 RMK A01 T02990182  RH  049%=      5-min Rain = 0
KTA1 101925Z 17012KT 30/18 A3006 RMK A01 T03010183  RH  049%=      5-min Rain = 0
KTA1 101926Z 17012KT 30/18 A3006 RMK A01 T03020184  RH  049%=      5-min Rain = 0
KTA1 101927Z 16018KT 30/18 A3006 RMK A01 T03030184  RH  049%=      5-min Rain = 0
KTA1 101928Z 16016G22KT 30/18 A3006 RMK A01 T02990182  RH  049%=      5-min Rain = 0
KTA1 101929Z 16013G18KT 30/19 A3006 RMK A01 T02990186  RH  051%=      5-min Rain = 0
KTA1 101930Z 15017KT 31/19 A3006 RMK A01 T03050188  RH  050%=      5-min Rain = 0
KTA1 101931Z 17016KT 31/19 A3006 RMK A01 T03080187  RH  049%=      5-min Rain = 0
KTA1 101932Z 17017G22KT 31/19 A3005 RMK A01 T03080187  RH  048%=      5-min Rain = 0
KTA1 101933Z 17016KT 31/19 A3005 RMK A01 T03060185  RH  049%=      5-min Rain = 0
KTA1 101934Z 17015KT 30/18 A3005 RMK A01 T03040184  RH  049%=      5-min Rain = 0
KTA1 101935Z 17018KT 30/19 A3005 RMK A01 T03040185  RH  049%=      5-min Rain = 0
KTA1 101936Z 17018KT 31/19 A3005 RMK A01 T03050185  RH  049%=      5-min Rain = 0
KTA1 101937Z 17014KT 31/18 A3005 RMK A01 T03050184  RH  049%=      5-min Rain = 0
KTA1 101938Z 17011KT 30/18 A3005 RMK A01 T03040184  RH  049%=      5-min Rain = 0
KTA1 101939Z 18016G22KT 30/19 A3005 RMK A01 T03040185  RH  049%=      5-min Rain = 0
KTA1 101940Z 18018KT 30/18 A3005 RMK A01 T03040181  RH  048%=      5-min Rain = 0
KTA1 101941Z 18018KT 30/18 A3005 RMK A01 T03030182  RH  048%=      5-min Rain = 0
KTA1 101942Z 17015KT 30/18 A3005 RMK A01 T03020183  RH  049%=      5-min Rain = 0
KTA1 101943Z 17015KT 30/19 A3005 RMK A01 T03030185  RH  049%=      5-min Rain = 0
KTA1 101944Z 19012G17KT 30/19 A3005 RMK A01 T03040186  RH  049%=      5-min Rain = 0
KTA1 101945Z 18013G21KT 31/19 A3005 RMK A01 T03050187  RH  049%=      5-min Rain = 0
KTA1 101946Z 18018KT 31/18 A3005 RMK A01 T03050184  RH  048%=      5-min Rain = 0
KTA1 101947Z 18019KT 31/18 A3005 RMK A01 T03050184  RH  048%=      5-min Rain = 0
KTA1 101948Z 18017G22KT 30/18 A3005 RMK A01 T03020182  RH  048%=      5-min Rain = 0
KTA1 101949Z 18013KT 30/18 A3005 RMK A01 T03000182  RH  049%=      5-min Rain = 0
KTA1 101950Z 18016G21KT 30/18 A3005 RMK A01 T02990182  RH  050%=      5-min Rain = 0
KTA1 101951Z 19016KT 30/18 A3004 RMK A01 T03000180  RH  049%=      5-min Rain = 0
KTA1 101952Z 19017KT 30/18 A3004 RMK A01 T03000181  RH  049%=      5-min Rain = 0
KTA1 101953Z 18014G20KT 30/18 A3004 RMK A01 T03000182  RH  049%=      5-min Rain = 0
KTA1 101954Z 18015KT 30/18 A3004 RMK A01 T03020181  RH  048%=      5-min Rain = 0
KTA1 101955Z 18013G18KT 30/18 A3004 RMK A01 T03020180  RH  048%=      5-min Rain = 0
KTA1 101956Z 17014KT 30/18 A3004 RMK A01 T03010181  RH  049%=      5-min Rain = 0
KTA1 101957Z 16014KT 30/18 A3004 RMK A01 T03020184  RH  049%=      5-min Rain = 0
KTA1 101958Z 15015G20KT 31/19 A3004 RMK A01 T03070187  RH  049%=      5-min Rain = 0
KTA1 101959Z 16015KT 31/19 A3004 RMK A01 T03100186  RH  048%=      5-min Rain = 0
KTA1 102000Z 17013KT 31/19 A3004 RMK A01 T03100186  RH  048%=      5-min Rain = 0
KTA1 102001Z 16016KT 31/19 A3004 RMK A01 T03100185  RH  047%=      5-min Rain = 0
KTA1 102002Z 16012KT 31/19 A3004 RMK A01 T03070185  RH  048%=      5-min Rain = 0
KTA1 102003Z 15012KT 31/19 A3004 RMK A01 T03070187  RH  049%=      5-min Rain = 0
KTA1 102004Z 16012KT 31/19 A3004 RMK A01 T03090187  RH  048%=      5-min Rain = 0
KTA1 102005Z 18013G19KT 31/18 A3004 RMK A01 T03120184  RH  047%=      5-min Rain = 0
KTA1 102006Z 18017G22KT 31/18 A3004 RMK A01 T03140178  RH  044%=      5-min Rain = 0
KTA1 102007Z 17015G20KT 31/18 A3004 RMK A01 T03140180  RH  045%=      5-min Rain = 0
KTA1 102008Z 17014KT 31/18 A3004 RMK A01 T03130181  RH  045%=      5-min Rain = 0
KTA1 102009Z 18015KT 31/18 A3004 RMK A01 T03130181  RH  045%=      5-min Rain = 0
KTA1 102010Z 17013G18KT 31/18 A3004 RMK A01 T03130180  RH  045%=      5-min Rain = 0
KTA1 102011Z 18015KT 31/18 A3004 RMK A01 T03120182  RH  046%=      5-min Rain = 0
KTA1 102012Z 16012G17KT 31/18 A3004 RMK A01 T03110182  RH  046%=      5-min Rain = 0
KTA1 102013Z 16014KT 31/18 A3004 RMK A01 T03080183  RH  047%=      5-min Rain = 0
KTA1 102014Z 16013KT 30/18 A3004 RMK A01 T03040182  RH  048%=      5-min Rain = 0
KTA1 102015Z 16013KT 30/18 A3004 RMK A01 T03010183  RH  049%=      5-min Rain = 0
KTA1 102016Z 17016KT 30/18 A3004 RMK A01 T03010179  RH  048%=      5-min Rain = 0
KTA1 102017Z 16015KT 30/18 A3003 RMK A01 T03030178  RH  047%=      5-min Rain = 0
KTA1 102018Z 16012KT 31/18 A3003 RMK A01 T03050178  RH  047%=      5-min Rain = 0
KTA1 102019Z 17012KT 31/18 A3003 RMK A01 T03070177  RH  046%=      5-min Rain = 0
KTA1 102020Z 17014G19KT 31/18 A3003 RMK A01 T03070178  RH  046%=      5-min Rain = 0
KTA1 102021Z 17016KT 31/18 A3003 RMK A01 T03080180  RH  047%=      5-min Rain = 0
KTA1 102022Z 17014KT 31/18 A3003 RMK A01 T03070179  RH  046%=      5-min Rain = 0
KTA1 102023Z 17012KT 31/18 A3003 RMK A01 T03050179  RH  047%=      5-min Rain = 0
KTA1 102024Z 17013KT 30/18 A3003 RMK A01 T03030181  RH  048%=      5-min Rain = 0
KTA1 102025Z 18018KT 30/18 A3003 RMK A01 T03030181  RH  048%=      5-min Rain = 0
KTA1 102026Z 17014KT 30/18 A3003 RMK A01 T02990180  RH  049%=      5-min Rain = 0
KTA1 102027Z 17014G19KT 30/18 A3003 RMK A01 T02980180  RH  049%=      5-min Rain = 0
KTA1 102028Z 18013KT 30/18 A3003 RMK A01 T02970180  RH  049%=      5-min Rain = 0
KTA1 102029Z 18014KT 30/18 A3003 RMK A01 T02970180  RH  049%=      5-min Rain = 0
KTA1 102030Z 17011KT 30/18 A3003 RMK A01 T02970180  RH  049%=      5-min Rain = 0
KTA1 102031Z 16013G20KT 30/18 A3003 RMK A01 T02970180  RH  049%=      5-min Rain = 0
KTA1 102032Z 16017KT 30/18 A3003 RMK A01 T02980181  RH  049%=      5-min Rain = 0
KTA1 102033Z 16014KT 30/18 A3003 RMK A01 T03000182  RH  049%=      5-min Rain = 0
KTA1 102034Z 16013KT 30/18 A3003 RMK A01 T03000182  RH  049%=      5-min Rain = 0
KTA1 102035Z 17014KT 30/18 A3003 RMK A01 T03000182  RH  049%=      5-min Rain = 0
KTA1 102036Z 17016KT 30/18 A3003 RMK A01 T02980181  RH  049%=      5-min Rain = 0
KTA1 102037Z 17017KT 30/18 A3003 RMK A01 T02980180  RH  049%=      5-min Rain = 0
KTA1 102038Z 16015KT 30/18 A3003 RMK A01 T03010180  RH  048%=      5-min Rain = 0
KTA1 102039Z 17015KT 30/18 A3003 RMK A01 T03010178  RH  048%=      5-min Rain = 0
KTA1 102040Z 17013KT 30/18 A3003 RMK A01 T02990178  RH  048%=      5-min Rain = 0
KTA1 102041Z 16012G17KT 30/18 A3003 RMK A01 T02980178  RH  048%=      5-min Rain = 0
KTA1 102042Z 17012KT 30/18 A3003 RMK A01 T03010181  RH  049%=      5-min Rain = 0
KTA1 102043Z 18016KT 30/18 A3003 RMK A01 T03030180  RH  048%=      5-min Rain = 0
KTA1 102044Z 18015G20KT 30/18 A3002 RMK A01 T03020178  RH  047%=      5-min Rain = 0
KTA1 102045Z 18015G21KT 30/18 A3002 RMK A01 T03010180  RH  048%=      5-min Rain = 0
KTA1 102046Z 17016KT 30/18 A3002 RMK A01 T03030181  RH  048%=      5-min Rain = 0
KTA1 102047Z 17014G21KT 30/18 A3002 RMK A01 T03040179  RH  047%=      5-min Rain = 0
KTA1 102048Z 17017KT 31/18 A3002 RMK A01 T03060181  RH  047%=      5-min Rain = 0
KTA1 102049Z 17014KT 31/18 A3002 RMK A01 T03070181  RH  047%=      5-min Rain = 0
KTA1 102050Z 17015G20KT 31/18 A3002 RMK A01 T03070183  RH  047%=      5-min Rain = 0
KTA1 102051Z 17017KT 31/18 A3002 RMK A01 T03090180  RH  046%=      5-min Rain = 0
KTA1 102052Z 17015KT 31/18 A3002 RMK A01 T03070180  RH  047%=      5-min Rain = 0
KTA1 102053Z 17012G18KT 31/18 A3002 RMK A01 T03070180  RH  047%=      5-min Rain = 0
KTA1 102054Z 17013KT 31/18 A3002 RMK A01 T03080181  RH  047%=      5-min Rain = 0
KTA1 102055Z 17018KT 31/18 A3002 RMK A01 T03080179  RH  046%=      5-min Rain = 0
KTA1 102056Z 17013KT 31/18 A3002 RMK A01 T03060179  RH  047%=      5-min Rain = 0
KTA1 102057Z 17014G19KT 31/18 A3002 RMK A01 T03060178  RH  046%=      5-min Rain = 0
KTA1 102058Z 16015KT 31/18 A3002 RMK A01 T03050177  RH  046%=      5-min Rain = 0
KTA1 102059Z 17011KT 31/18 A3002 RMK A01 T03070180  RH  047%=      5-min Rain = 0
KTA1 102100Z 18014KT 31/18 A3002 RMK A01 T03090179  RH  046%=      5-min Rain = 0
KTA1 102101Z 17011KT 31/18 A3002 RMK A01 T03080178  RH  046%=      5-min Rain = 0
KTA1 102102Z 17012KT 31/18 A3002 RMK A01 T03070180  RH  046%=      5-min Rain = 0
KTA1 102103Z 18015KT 31/18 A3002 RMK A01 T03080179  RH  046%=      5-min Rain = 0
KTA1 102104Z 18012KT 31/18 A3002 RMK A01 T03080179  RH  046%=      5-min Rain = 0
KTA1 102105Z 17011KT 31/18 A3002 RMK A01 T03070180  RH  047%=      5-min Rain = 0
KTA1 102106Z 17011KT 31/18 A3002 RMK A01 T03080181  RH  047%=      5-min Rain = 0
KTA1 102107Z 17017KT 31/18 A3002 RMK A01 T03060180  RH  047%=      5-min Rain = 0
KTA1 102108Z 17015KT 30/18 A3002 RMK A01 T03040176  RH  046%=      5-min Rain = 0
KTA1 102109Z 17013KT 30/18 A3002 RMK A01 T03010176  RH  047%=      5-min Rain = 0
KTA1 102110Z 17012KT 30/18 A3002 RMK A01 T03000177  RH  048%=      5-min Rain = 0
KTA1 102111Z 17012KT 30/18 A3002 RMK A01 T03000177  RH  048%=      5-min Rain = 0
KTA1 102112Z 17013KT 30/18 A3002 RMK A01 T03000177  RH  048%=      5-min Rain = 0
KTA1 102113Z 17013KT 30/18 A3002 RMK A01 T03010177  RH  047%=      5-min Rain = 0
KTA1 102114Z 17011KT 30/18 A3002 RMK A01 T03020178  RH  047%=      5-min Rain = 0
KTA1 102115Z 17013KT 30/18 A3001 RMK A01 T03040178  RH  047%=      5-min Rain = 0
KTA1 102116Z 17012KT 31/18 A3001 RMK A01 T03050177  RH  046%=      5-min Rain = 0
KTA1 102117Z 17012KT 31/18 A3001 RMK A01 T03060179  RH  046%=      5-min Rain = 0
KTA1 102118Z 18013KT 31/18 A3001 RMK A01 T03100176  RH  045%=      5-min Rain = 0
KTA1 102119Z 18009KT 31/18 A3001 RMK A01 T03110176  RH  044%=      5-min Rain = 0
KTA1 102120Z 17012G18KT 31/18 A3001 RMK A01 T03140178  RH  044%=      5-min Rain = 0
KTA1 102121Z 16016KT 32/18 A3001 RMK A01 T03150177  RH  044%=      5-min Rain = 0
KTA1 102122Z 15014KT 31/18 A3001 RMK A01 T03130177  RH  044%=      5-min Rain = 0
KTA1 102123Z 15013KT 31/18 A3001 RMK A01 T03120177  RH  045%=      5-min Rain = 0
KTA1 102124Z 18013KT 31/18 A3001 RMK A01 T03110176  RH  045%=      5-min Rain = 0
KTA1 102125Z 18010G15KT 31/18 A3001 RMK A01 T03110176  RH  044%=      5-min Rain = 0
KTA1 102126Z 16012KT 31/18 A3001 RMK A01 T03130177  RH  044%=      5-min Rain = 0
KTA1 102127Z 18012KT 32/18 A3001 RMK A01 T03160176  RH  043%=      5-min Rain = 0
KTA1 102128Z 17009KT 32/18 A3001 RMK A01 T03190177  RH  043%=      5-min Rain = 0
KTA1 102129Z 18011G16KT 32/18 A3001 RMK A01 T03200175  RH  042%=      5-min Rain = 0
KTA1 102130Z 16013KT 32/18 A3001 RMK A01 T03200176  RH  042%=      5-min Rain = 0
KTA1 102131Z 16014KT 32/18 A3001 RMK A01 T03190176  RH  042%=      5-min Rain = 0
KTA1 102132Z 17012KT 32/18 A3001 RMK A01 T03170175  RH  043%=      5-min Rain = 0
KTA1 102133Z 16012KT 32/18 A3001 RMK A01 T03150176  RH  043%=      5-min Rain = 0
KTA1 102134Z 16015KT 32/18 A3001 RMK A01 T03150179  RH  044%=      5-min Rain = 0
KTA1 102135Z 15016G21KT 31/18 A3001 RMK A01 T03140180  RH  045%=      5-min Rain = 0
KTA1 102136Z 16013G18KT 31/18 A3001 RMK A01 T03120177  RH  044%=      5-min Rain = 0
KTA1 102137Z 16012KT 31/18 A3001 RMK A01 T03100177  RH  045%=      5-min Rain = 0
KTA1 102138Z 16010KT 31/18 A3001 RMK A01 T03080176  RH  045%=      5-min Rain = 0
KTA1 102139Z 17014KT 31/18 A3001 RMK A01 T03070177  RH  046%=      5-min Rain = 0
KTA1 102140Z 17012KT 31/18 A3001 RMK A01 T03060175  RH  045%=      5-min Rain = 0
KTA1 102141Z 16010G15KT 31/17 A3001 RMK A01 T03050174  RH  046%=      5-min Rain = 0
KTA1 102142Z 16012KT 30/18 A3001 RMK A01 T03040175  RH  046%=      5-min Rain = 0
KTA1 102143Z 17010KT 31/18 A30 RMK A01 T03050176  RH  046%=      5-min Rain = 0
KTA1 102144Z 16013KT 31/18 A30 RMK A01 T03050176  RH  046%=      5-min Rain = 0
KTA1 102145Z 18014KT 31/17 A30 RMK A01 T03060172  RH  045%=      5-min Rain = 0
KTA1 102146Z 18012KT 31/17 A30 RMK A01 T03060169  RH  044%=      5-min Rain = 0
KTA1 102147Z 18010KT 31/17 A30 RMK A01 T03070169  RH  044%=      5-min Rain = 0
KTA1 102148Z 17010G17KT 31/17 A30 RMK A01 T03080171  RH  044%=      5-min Rain = 0
KTA1 102149Z 14012KT 31/17 A30 RMK A01 T03120171  RH  043%=      5-min Rain = 0
KTA1 102150Z 15011KT 31/17 A30 RMK A01 T03130171  RH  043%=      5-min Rain = 0
KTA1 102151Z 15011KT 31/17 A30 RMK A01 T03140170  RH  042%=      5-min Rain = 0
KTA1 102152Z 16011KT 32/17 A30 RMK A01 T03150170  RH  042%=      5-min Rain = 0
KTA1 102153Z 17010G15KT 32/17 A30 RMK A01 T03160170  RH  042%=      5-min Rain = 0
KTA1 102154Z 17014G19KT 32/17 A30 RMK A01 T03160170  RH  042%=      5-min Rain = 0
KTA1 102155Z 17012KT 32/17 A30 RMK A01 T03150169  RH  042%=      5-min Rain = 0
KTA1 102156Z 17014KT 32/17 A30 RMK A01 T03150168  RH  041%=      5-min Rain = 0
KTA1 102157Z 17013KT 31/17 A30 RMK A01 T03130168  RH  042%=      5-min Rain = 0
KTA1 102158Z 16010KT 31/17 A30 RMK A01 T03120170  RH  043%=      5-min Rain = 0
KTA1 102159Z 16011KT 31/17 A30 RMK A01 T03130173  RH  043%=      5-min Rain = 0
KTA1 102200Z 16015KT 32/17 A30 RMK A01 T03150172  RH  042%=      5-min Rain = 0
KTA1 102201Z 16014KT 32/17 A2999 RMK A01 T03150172  RH  043%=      5-min Rain = 0
KTA1 102202Z 17011G16KT 31/17 A2999 RMK A01 T03140172  RH  043%=      5-min Rain = 0
KTA1 102203Z 17015KT 32/17 A2999 RMK A01 T03150172  RH  042%=      5-min Rain = 0
KTA1 102204Z 16013KT 32/17 A2999 RMK A01 T03150173  RH  043%=      5-min Rain = 0
KTA1 102205Z 15013KT 31/18 A30 RMK A01 T03140177  RH  044%=      5-min Rain = 0
KTA1 102206Z 15014KT 31/18 A2999 RMK A01 T03130177  RH  044%=      5-min Rain = 0
KTA1 102207Z 15013KT 31/18 A30 RMK A01 T03140178  RH  044%=      5-min Rain = 0
KTA1 102208Z 15010KT 32/18 A30 RMK A01 T03150181  RH  045%=      5-min Rain = 0
KTA1 102209Z 14013KT 32/18 A2999 RMK A01 T03170181  RH  044%=      5-min Rain = 0
KTA1 102210Z 15016KT 32/18 A2999 RMK A01 T03170181  RH  045%=      5-min Rain = 0
KTA1 102211Z 16016G22KT 32/18 A2999 RMK A01 T03150182  RH  045%=      5-min Rain = 0
KTA1 102212Z 16018KT 31/18 A2999 RMK A01 T03110182  RH  046%=      5-min Rain = 0
KTA1 102213Z 18017KT 31/18 A2999 RMK A01 T03060182  RH  047%=      5-min Rain = 0
KTA1 102214Z 17013G18KT 30/18 A2999 RMK A01 T03040180  RH  048%=      5-min Rain = 0
KTA1 102215Z 16013G20KT 31/18 A30 RMK A01 T03050182  RH  048%=      5-min Rain = 0
KTA1 102216Z 16014G20KT 31/18 A30 RMK A01 T03070182  RH  047%=      5-min Rain = 0
KTA1 102217Z 16017KT 31/18 A2999 RMK A01 T03070179  RH  046%=      5-min Rain = 0
KTA1 102218Z 15014KT 31/18 A2999 RMK A01 T03060178  RH  046%=      5-min Rain = 0
KTA1 102219Z 16013KT 31/18 A2999 RMK A01 T03060178  RH  046%=      5-min Rain = 0
KTA1 102220Z 16010KT 31/18 A2999 RMK A01 T03070180  RH  047%=      5-min Rain = 0
KTA1 102221Z 15010KT 31/18 A2999 RMK A01 T03100182  RH  046%=      5-min Rain = 0
KTA1 102222Z 15010KT 31/18 A30 RMK A01 T03120180  RH  045%=      5-min Rain = 0
KTA1 102223Z 14016KT 31/18 A30 RMK A01 T03110178  RH  045%=      5-min Rain = 0
KTA1 102224Z 15013KT 31/18 A30 RMK A01 T03080177  RH  045%=      5-min Rain = 0
KTA1 102225Z 14011G17KT 31/18 A30 RMK A01 T03080177  RH  045%=      5-min Rain = 0
KTA1 102226Z 16014KT 31/18 A30 RMK A01 T03090177  RH  045%=      5-min Rain = 0
KTA1 102227Z 17009KT 31/18 A30 RMK A01 T03100176  RH  045%=      5-min Rain = 0
KTA1 102228Z 17010KT 31/18 A30 RMK A01 T03110177  RH  045%=      5-min Rain = 0
KTA1 102229Z 17012KT 31/18 A2999 RMK A01 T03120175  RH  044%=      5-min Rain = 0
KTA1 102230Z 14014G19KT 31/17 A2999 RMK A01 T03110174  RH  044%=      5-min Rain = 0
KTA1 102231Z 16015KT 31/17 A2999 RMK A01 T03110173  RH  044%=      5-min Rain = 0
KTA1 102232Z 16013KT 31/17 A2999 RMK A01 T03090173  RH  044%=      5-min Rain = 0
KTA1 102233Z 16012KT 31/17 A2999 RMK A01 T03080173  RH  044%=      5-min Rain = 0
KTA1 102234Z 15012KT 31/17 A2999 RMK A01 T03070173  RH  045%=      5-min Rain = 0
KTA1 102235Z 15014KT 31/17 A30 RMK A01 T03070173  RH  045%=      5-min Rain = 0
KTA1 102236Z 16015KT 31/17 A2999 RMK A01 T03070171  RH  044%=      5-min Rain = 0
KTA1 102237Z 14016KT 31/17 A2999 RMK A01 T03070171  RH  044%=      5-min Rain = 0
KTA1 102238Z 15014KT 31/17 A2999 RMK A01 T03070171  RH  044%=      5-min Rain = 0
KTA1 102239Z 14015G20KT 31/17 A2999 RMK A01 T03070169  RH  044%=      5-min Rain = 0
KTA1 102240Z 15012KT 31/17 A2999 RMK A01 T03070168  RH  043%=      5-min Rain = 0
KTA1 102241Z 15014KT 31/17 A2999 RMK A01 T03080170  RH  044%=      5-min Rain = 0
KTA1 102242Z 15017KT 31/17 A30 RMK A01 T03080169  RH  043%=      5-min Rain = 0
KTA1 102243Z 15016KT 31/17 A30 RMK A01 T03070168  RH  043%=      5-min Rain = 0
KTA1 102244Z 15015KT 31/17 A30 RMK A01 T03060168  RH  043%=      5-min Rain = 0
KTA1 102245Z 15015KT 31/17 A30 RMK A01 T03060166  RH  043%=      5-min Rain = 0
KTA1 102246Z 15017KT 31/17 A30 RMK A01 T03070165  RH  042%=      5-min Rain = 0
KTA1 102247Z 14015KT 31/17 A30 RMK A01 T03070165  RH  042%=      5-min Rain = 0
KTA1 102248Z 15014KT 31/16 A30 RMK A01 T03060163  RH  042%=      5-min Rain = 0
KTA1 102249Z 15013KT 31/16 A30 RMK A01 T03050161  RH  042%=      5-min Rain = 0
KTA1 102250Z 15011KT 30/16 A30 RMK A01 T03040160  RH  042%=      5-min Rain = 0
KTA1 102251Z 15012G18KT 31/16 A30 RMK A01 T03050161  RH  042%=      5-min Rain = 0
KTA1 102252Z 15012KT 31/17 A30 RMK A01 T03080165  RH  042%=      5-min Rain = 0
KTA1 102253Z 14014KT 31/17 A30 RMK A01 T03090166  RH  042%=      5-min Rain = 0
KTA1 102254Z 14013KT 31/17 A30 RMK A01 T03100167  RH  042%=      5-min Rain = 0
KTA1 102255Z 14014KT 31/17 A30 RMK A01 T03100167  RH  042%=      5-min Rain = 0
KTA1 102256Z 14014KT 31/17 A30 RMK A01 T03090167  RH  042%=      5-min Rain = 0
KTA1 102257Z 15012G18KT 31/17 A30 RMK A01 T03090169  RH  043%=      5-min Rain = 0
KTA1 102258Z 16015KT 31/17 A30 RMK A01 T03090168  RH  043%=      5-min Rain = 0
KTA1 102259Z 16013KT 31/17 A30 RMK A01 T03080168  RH  043%=      5-min Rain = 0
KTA1 102300Z 17011KT 31/17 A30 RMK A01 T03060169  RH  044%=      5-min Rain = 0
KTA1 102301Z 17010KT 30/17 A30 RMK A01 T03040167  RH  044%=      5-min Rain = 0
KTA1 102302Z 16008KT 30/17 A30 RMK A01 T03040168  RH  044%=      5-min Rain = 0
KTA1 102303Z 16010KT 31/17 A30 RMK A01 T03050168  RH  044%=      5-min Rain = 0
KTA1 102304Z 17015KT 31/17 A30 RMK A01 T03070172  RH  044%=      5-min Rain = 0
KTA1 102305Z 16013KT 31/17 A30 RMK A01 T03090173  RH  044%=      5-min Rain = 0
KTA1 102306Z 16011G16KT 31/17 A30 RMK A01 T03090174  RH  044%=      5-min Rain = 0
KTA1 102307Z 16013KT 31/18 A30 RMK A01 T03080175  RH  045%=      5-min Rain = 0
KTA1 102308Z 15013KT 31/17 A30 RMK A01 T03080174  RH  045%=      5-min Rain = 0
KTA1 102309Z 16010KT 31/17 A30 RMK A01 T03060173  RH  045%=      5-min Rain = 0
KTA1 102310Z 16015G20KT 30/17 A30 RMK A01 T03040173  RH  045%=      5-min Rain = 0
KTA1 102311Z 17016KT 30/17 A30 RMK A01 T03020172  RH  046%=      5-min Rain = 0
KTA1 102312Z 16015KT 30/17 A30 RMK A01 T03010171  RH  046%=      5-min Rain = 0
KTA1 102313Z 16013G18KT 30/17 A30 RMK A01 T03010172  RH  046%=      5-min Rain = 0
KTA1 102314Z 16011KT 30/17 A30 RMK A01 T03010173  RH  046%=      5-min Rain = 0
KTA1 102315Z 17013KT 30/17 A30 RMK A01 T03010173  RH  046%=      5-min Rain = 0
KTA1 102316Z 17015KT 30/17 A30 RMK A01 T03010171  RH  046%=      5-min Rain = 0
KTA1 102317Z 17014KT 30/17 A30 RMK A01 T03010170  RH  045%=      5-min Rain = 0
KTA1 102318Z 17014KT 30/17 A30 RMK A01 T03000169  RH  045%=      5-min Rain = 0
KTA1 102319Z 17012G17KT 30/17 A30 RMK A01 T03000169  RH  045%=      5-min Rain = 0
KTA1 102320Z 17013KT 30/17 A30 RMK A01 T03000170  RH  046%=      5-min Rain = 0
KTA1 102321Z 17011KT 30/17 A30 RMK A01 T03000171  RH  046%=      5-min Rain = 0
KTA1 102322Z 16011KT 30/17 A30 RMK A01 T02990171  RH  046%=      5-min Rain = 0
KTA1 102323Z 16011KT 30/17 A30 RMK A01 T02990170  RH  046%=      5-min Rain = 0
KTA1 102324Z 16010KT 30/17 A30 RMK A01 T02990170  RH  046%=      5-min Rain = 0
KTA1 102325Z 16011G16KT 30/17 A30 RMK A01 T02990171  RH  046%=      5-min Rain = 0
KTA1 102326Z 15015KT 30/17 A30 RMK A01 T02990173  RH  047%=      5-min Rain = 0
KTA1 102327Z 15014KT 30/17 A30 RMK A01 T02990173  RH  047%=      5-min Rain = 0
KTA1 102328Z 15015KT 30/17 A30 RMK A01 T02980172  RH  047%=      5-min Rain = 0
KTA1 102329Z 15013KT 30/17 A30 RMK A01 T02970173  RH  047%=      5-min Rain = 0
KTA1 102330Z 15015KT 30/17 A30 RMK A01 T02970174  RH  048%=      5-min Rain = 0
KTA1 102331Z 15014KT 30/18 A30 RMK A01 T02960175  RH  048%=      5-min Rain = 0
KTA1 102332Z 16012G17KT 30/18 A30 RMK A01 T02950176  RH  049%=      5-min Rain = 0
KTA1 102333Z 16011G17KT 30/18 A30 RMK A01 T02950175  RH  049%=      5-min Rain = 0
KTA1 102334Z 15012KT 30/18 A30 RMK A01 T02950176  RH  049%=      5-min Rain = 0
KTA1 102335Z 15012KT 29/18 A30 RMK A01 T02940175  RH  049%=      5-min Rain = 0
KTA1 102336Z 15011KT 30/18 A30 RMK A01 T02950175  RH  048%=      5-min Rain = 0
KTA1 102337Z 15012KT 30/17 A30 RMK A01 T02950174  RH  048%=      5-min Rain = 0
KTA1 102338Z 16014KT 30/17 A30 RMK A01 T02950174  RH  048%=      5-min Rain = 0
KTA1 102339Z 17017KT 30/18 A30 RMK A01 T02950175  RH  049%=      5-min Rain = 0
KTA1 102340Z 17015G20KT 29/18 A30 RMK A01 T02940176  RH  049%=      5-min Rain = 0
KTA1 102341Z 18015KT 29/18 A3001 RMK A01 T02920179  RH  051%=      5-min Rain = 0
KTA1 102342Z 18018KT 29/19 A3001 RMK A01 T02860193  RH  057%=      5-min Rain = 0
KTA1 102343Z 17014KT 28/19 A3001 RMK A01 T02770193  RH  060%=      5-min Rain = 0
KTA1 102344Z 17010KT 27/19 A3001 RMK A01 T02710194  RH  063%=      5-min Rain = 0
KTA1 102345Z 16009KT 27/20 A3001 RMK A01 T02680196  RH  065%=      5-min Rain = 0
KTA1 102346Z 17009KT 27/20 A3001 RMK A01 T02650199  RH  067%=      5-min Rain = 0
KTA1 102347Z 17011G16KT 26/20 A3001 RMK A01 T02630203  RH  070%=      5-min Rain = 0
KTA1 102348Z 17014KT 26/20 A3001 RMK A01 T02620203  RH  070%=      5-min Rain = 0
KTA1 102349Z 17013G19KT 26/21 A3001 RMK A01 T02620208  RH  072%=      5-min Rain = 0
KTA1 102350Z 17012KT 26/21 A3001 RMK A01 T02610206  RH  072%=      5-min Rain = 0
KTA1 102351Z 17015KT 26/21 A3001 RMK A01 T02610205  RH  071%=      5-min Rain = 0
KTA1 102352Z 17015KT 26/20 A3001 RMK A01 T02620201  RH  069%=      5-min Rain = 0
KTA1 102353Z 17014KT 26/20 A3001 RMK A01 T02630203  RH  069%=      5-min Rain = 0
KTA1 102354Z 17015KT 26/20 A3001 RMK A01 T02640200  RH  068%=      5-min Rain = 0
KTA1 102355Z 17016KT 27/20 A3001 RMK A01 T02650197  RH  066%=      5-min Rain = 0
KTA1 102356Z 17014KT 27/20 A3001 RMK A01 T02670198  RH  066%=      5-min Rain = 0
KTA1 102357Z 18014KT 27/20 A3001 RMK A01 T02680198  RH  066%=      5-min Rain = 0
KTA1 102358Z 18015KT 27/20 A3001 RMK A01 T02680199  RH  066%=      5-min Rain = 0
KTA1 102359Z 18016KT 27/20 A3001 RMK A01 T02690197  RH  065%=      5-min Rain = 0
KTA1 110000Z 18017KT 27/20 A3001 RMK A01 T02690195  RH  064%=      5-min Rain = 0
KTA1 110001Z 17015KT 27/19 A3001 RMK A01 T02700194  RH  063%=      5-min Rain = 0
KTA1 110002Z 18011G19KT 27/20 A3001 RMK A01 T02720196  RH  063%=      5-min Rain = 0
KTA1 110003Z 17016KT 27/19 A3001 RMK A01 T02720194  RH  063%=      5-min Rain = 0
KTA1 110004Z 18014KT 27/20 A3001 RMK A01 T02720195  RH  063%=      5-min Rain = 0
KTA1 110005Z 18014KT 27/19 A3001 RMK A01 T02720194  RH  063%=      5-min Rain = 0
KTA1 110006Z 18016KT 27/19 A3001 RMK A01 T02710192  RH  062%=      5-min Rain = 0
KTA1 110007Z 17014KT 27/19 A3001 RMK A01 T02710192  RH  062%=      5-min Rain = 0
KTA1 110008Z 18012KT 27/19 A3001 RMK A01 T02710192  RH  062%=      5-min Rain = 0
KTA1 110009Z 17013KT 27/19 A3001 RMK A01 T02700191  RH  062%=      5-min Rain = 0
KTA1 110010Z 17012KT 27/19 A3001 RMK A01 T02700192  RH  062%=      5-min Rain = 0
KTA1 110011Z 17012KT 27/19 A3001 RMK A01 T02710190  RH  061%=      5-min Rain = 0
KTA1 110012Z 17013KT 27/19 A3001 RMK A01 T02700189  RH  061%=      5-min Rain = 0
KTA1 110013Z 17014KT 27/19 A3001 RMK A01 T02700188  RH  061%=      5-min Rain = 0
KTA1 110014Z 17015KT 27/19 A3001 RMK A01 T02700187  RH  060%=      5-min Rain = 0
KTA1 110015Z 17014KT 27/19 A3001 RMK A01 T02710186  RH  060%=      5-min Rain = 0
KTA1 110016Z 18012KT 27/19 A3001 RMK A01 T02710187  RH  060%=      5-min Rain = 0
KTA1 110017Z 18011G16KT 27/19 A3001 RMK A01 T02710187  RH  060%=      5-min Rain = 0
KTA1 110018Z 17013KT 27/19 A3001 RMK A01 T02710186  RH  060%=      5-min Rain = 0
KTA1 110019Z 17010KT 27/19 A3001 RMK A01 T02700185  RH  060%=      5-min Rain = 0
KTA1 110020Z 17011KT 27/19 A3001 RMK A01 T02700186  RH  060%=      5-min Rain = 0
KTA1 110021Z 18012G17KT 27/19 A3001 RMK A01 T02700185  RH  060%=      5-min Rain = 0
KTA1 110022Z 17012KT 27/18 A3001 RMK A01 T02710184  RH  059%=      5-min Rain = 0
KTA1 110023Z 17012KT 27/18 A3001 RMK A01 T02700182  RH  058%=      5-min Rain = 0
KTA1 110024Z 17011KT 27/18 A3001 RMK A01 T02710184  RH  059%=      5-min Rain = 0
KTA1 110025Z 17011KT 27/18 A3001 RMK A01 T02710183  RH  059%=      5-min Rain = 0
KTA1 110026Z 17010KT 27/18 A3001 RMK A01 T02710184  RH  059%=      5-min Rain = 0
KTA1 110027Z 17010KT 27/18 A3001 RMK A01 T02710184  RH  059%=      5-min Rain = 0
KTA1 110028Z 17010KT 27/18 A3001 RMK A01 T02710184  RH  059%=      5-min Rain = 0
KTA1 110029Z 17011KT 27/18 A3001 RMK A01 T02710184  RH  059%=      5-min Rain = 0
KTA1 110030Z 17009KT 27/18 A3001 RMK A01 T02710183  RH  059%=      5-min Rain = 0
KTA1 110031Z 17009KT 27/18 A3002 RMK A01 T02710184  RH  059%=      5-min Rain = 0
KTA1 110032Z 17010KT 27/18 A3002 RMK A01 T02700183  RH  059%=      5-min Rain = 0
KTA1 110033Z 17011KT 27/18 A3002 RMK A01 T02700183  RH  059%=      5-min Rain = 0
KTA1 110034Z 16011KT 27/18 A3002 RMK A01 T02700182  RH  059%=      5-min Rain = 0
KTA1 110035Z 16010KT 27/18 A3002 RMK A01 T02700182  RH  059%=      5-min Rain = 0
KTA1 110036Z 16010KT 27/18 A3002 RMK A01 T02690182  RH  059%=      5-min Rain = 0
KTA1 110037Z 16011KT 27/18 A3002 RMK A01 T02690181  RH  059%=      5-min Rain = 0
KTA1 110038Z 16011KT 27/18 A3002 RMK A01 T02690181  RH  059%=      5-min Rain = 0
KTA1 110039Z 16012KT 27/18 A3002 RMK A01 T02690181  RH  059%=      5-min Rain = 0
KTA1 110040Z 16011KT 27/18 A3002 RMK A01 T02680182  RH  059%=      5-min Rain = 0
KTA1 110041Z 16012KT 27/18 A3001 RMK A01 T02690182  RH  059%=      5-min Rain = 0
KTA1 110042Z 15009KT 27/18 A3002 RMK A01 T02680182  RH  059%=      5-min Rain = 0
KTA1 110043Z 15009KT 27/18 A3002 RMK A01 T02680183  RH  059%=      5-min Rain = 0
KTA1 110044Z 15011KT 27/18 A3002 RMK A01 T02680183  RH  060%=      5-min Rain = 0
KTA1 110045Z 16010KT 27/18 A3001 RMK A01 T02670182  RH  059%=      5-min Rain = 0
KTA1 110046Z 15010KT 27/18 A3002 RMK A01 T02670182  RH  060%=      5-min Rain = 0
KTA1 110047Z 16008KT 27/18 A3002 RMK A01 T02670181  RH  059%=      5-min Rain = 0
KTA1 110048Z 16011KT 27/18 A3002 RMK A01 T02670182  RH  060%=      5-min Rain = 0
KTA1 110049Z 15008KT 27/18 A3001 RMK A01 T02670181  RH  059%=      5-min Rain = 0
KTA1 110050Z 15008KT 27/18 A3002 RMK A01 T02670182  RH  060%=      5-min Rain = 0
KTA1 110051Z 15009KT 27/18 A3002 RMK A01 T02660182  RH  060%=      5-min Rain = 0
KTA1 110052Z 15009KT 27/18 A3001 RMK A01 T02660181  RH  060%=      5-min Rain = 0
KTA1 110053Z 15009KT 27/18 A3002 RMK A01 T02660181  RH  060%=      5-min Rain = 0
KTA1 110054Z 15009KT 27/18 A3001 RMK A01 T02660181  RH  060%=      5-min Rain = 0
KTA1 110055Z 15009KT 27/18 A3002 RMK A01 T02660182  RH  060%=      5-min Rain = 0
KTA1 110056Z 15010KT 27/18 A3001 RMK A01 T02650181  RH  060%=      5-min Rain = 0
KTA1 110057Z 15009KT 27/18 A3001 RMK A01 T02660181  RH  060%=      5-min Rain = 0
KTA1 110058Z 15008KT 27/18 A3001 RMK A01 T02650181  RH  060%=      5-min Rain = 0
KTA1 110059Z 16008KT 27/18 A3001 RMK A01 T02650181  RH  060%=      5-min Rain = 0
KTA1 110100Z 15009KT 27/18 A3001 RMK A01 T02650181  RH  060%=      5-min Rain = 0
KTA1 110101Z 15008KT 27/18 A3002 RMK A01 T02650181  RH  060%=      5-min Rain = 0
KTA1 110102Z 15009KT 26/18 A3002 RMK A01 T02640181  RH  060%=      5-min Rain = 0
KTA1 110103Z 15009KT 26/18 A3002 RMK A01 T02640180  RH  060%=      5-min Rain = 0
KTA1 110104Z 15008KT 26/18 A3002 RMK A01 T02640180  RH  060%=      5-min Rain = 0
KTA1 110105Z 15009KT 26/18 A3002 RMK A01 T02640180  RH  060%=      5-min Rain = 0
KTA1 110106Z 15009KT 26/18 A3002 RMK A01 T02640180  RH  060%=      5-min Rain = 0
KTA1 110107Z 15010KT 26/18 A3002 RMK A01 T02640180  RH  060%=      5-min Rain = 0
KTA1 110108Z 16010KT 26/18 A3002 RMK A01 T02640180  RH  060%=      5-min Rain = 0
KTA1 110109Z 15008KT 26/18 A3002 RMK A01 T02640180  RH  060%=      5-min Rain = 0
KTA1 110110Z 15010KT 26/18 A3002 RMK A01 T02640180  RH  060%=      5-min Rain = 0
KTA1 110111Z 16008KT 26/18 A3002 RMK A01 T02640180  RH  060%=      5-min Rain = 0
KTA1 110112Z 15010KT 26/18 A3002 RMK A01 T02640180  RH  060%=      5-min Rain = 0
KTA1 110113Z 15009KT 26/18 A3002 RMK A01 T02630180  RH  060%=      5-min Rain = 0
KTA1 110114Z 15008KT 26/18 A3002 RMK A01 T02630180  RH  060%=      5-min Rain = 0
KTA1 110115Z 15008KT 26/18 A3002 RMK A01 T02630180  RH  060%=      5-min Rain = 0
KTA1 110116Z 15006KT 26/18 A3002 RMK A01 T02630180  RH  060%=      5-min Rain = 0
KTA1 110117Z 15009KT 26/18 A3002 RMK A01 T02630180  RH  060%=      5-min Rain = 0
KTA1 110118Z 16010KT 26/18 A3002 RMK A01 T02620179  RH  060%=      5-min Rain = 0
KTA1 110119Z 16007KT 26/18 A3002 RMK A01 T02620179  RH  060%=      5-min Rain = 0
KTA1 110120Z 16008KT 26/18 A3002 RMK A01 T02620180  RH  060%=      5-min Rain = 0
KTA1 110121Z 16008KT 26/18 A3003 RMK A01 T02620180  RH  061%=      5-min Rain = 0
KTA1 110122Z 16008KT 26/18 A3003 RMK A01 T02620180  RH  061%=      5-min Rain = 0
KTA1 110123Z 16008KT 26/18 A3003 RMK A01 T02610180  RH  061%=      5-min Rain = 0
KTA1 110124Z 16008KT 26/18 A3003 RMK A01 T02610181  RH  061%=      5-min Rain = 0
KTA1 110125Z 15007KT 26/18 A3003 RMK A01 T02610180  RH  061%=      5-min Rain = 0
KTA1 110126Z 15008KT 26/18 A3003 RMK A01 T02610181  RH  061%=      5-min Rain = 0
KTA1 110127Z 15007KT 26/18 A3003 RMK A01 T02600181  RH  062%=      5-min Rain = 0
KTA1 110128Z 15007KT 26/18 A3003 RMK A01 T02600181  RH  062%=      5-min Rain = 0
KTA1 110129Z 15007KT 26/18 A3003 RMK A01 T02600181  RH  062%=      5-min Rain = 0
KTA1 110130Z 15007KT 26/18 A3003 RMK A01 T02600181  RH  062%=      5-min Rain = 0
KTA1 110131Z 15008KT 26/18 A3003 RMK A01 T02600181  RH  062%=      5-min Rain = 0
KTA1 110132Z 16007KT 26/18 A3004 RMK A01 T02590181  RH  062%=      5-min Rain = 0
KTA1 110133Z 16008KT 26/18 A3004 RMK A01 T02590181  RH  062%=      5-min Rain = 0
KTA1 110134Z 16008KT 26/18 A3004 RMK A01 T02590181  RH  062%=      5-min Rain = 0
KTA1 110135Z 16008KT 26/18 A3004 RMK A01 T02590181  RH  062%=      5-min Rain = 0
KTA1 110136Z 15008KT 26/18 A3004 RMK A01 T02590181  RH  062%=      5-min Rain = 0
KTA1 110137Z 15008KT 26/18 A3004 RMK A01 T02580181  RH  062%=      5-min Rain = 0
KTA1 110138Z 15007KT 26/18 A3004 RMK A01 T02580181  RH  062%=      5-min Rain = 0
KTA1 110139Z 15006KT 26/18 A3004 RMK A01 T02580182  RH  063%=      5-min Rain = 0
KTA1 110140Z 15008KT 26/18 A3004 RMK A01 T02580182  RH  063%=      5-min Rain = 0
KTA1 110141Z 15008KT 26/18 A3004 RMK A01 T02570181  RH  063%=      5-min Rain = 0
KTA1 110142Z 16007KT 26/18 A3004 RMK A01 T02580181  RH  063%=      5-min Rain = 0
KTA1 110143Z 15009KT 26/18 A3004 RMK A01 T02580182  RH  063%=      5-min Rain = 0
KTA1 110144Z 16009KT 26/18 A3004 RMK A01 T02570182  RH  063%=      5-min Rain = 0
KTA1 110145Z 16008KT 26/18 A3004 RMK A01 T02570182  RH  063%=      5-min Rain = 0
KTA1 110146Z 15007KT 26/18 A3004 RMK A01 T02570182  RH  063%=      5-min Rain = 0
KTA1 110147Z 15008KT 26/18 A3004 RMK A01 T02570182  RH  063%=      5-min Rain = 0
KTA1 110148Z 15008KT 26/18 A3004 RMK A01 T02570183  RH  064%=      5-min Rain = 0
KTA1 110149Z 16008KT 26/18 A3004 RMK A01 T02560182  RH  064%=      5-min Rain = 0
KTA1 110150Z 16009KT 26/18 A3004 RMK A01 T02560183  RH  064%=      5-min Rain = 0
KTA1 110151Z 16008KT 26/18 A3004 RMK A01 T02560183  RH  064%=      5-min Rain = 0
KTA1 110152Z 16008KT 26/18 A3004 RMK A01 T02560183  RH  064%=      5-min Rain = 0
KTA1 110153Z 16008KT 26/18 A3004 RMK A01 T02560183  RH  064%=      5-min Rain = 0
KTA1 110154Z 16008KT 26/18 A3004 RMK A01 T02560183  RH  064%=      5-min Rain = 0
KTA1 110155Z 16009KT 26/18 A3004 RMK A01 T02560182  RH  064%=      5-min Rain = 0
KTA1 110156Z 16008KT 26/18 A3004 RMK A01 T02550182  RH  064%=      5-min Rain = 0
KTA1 110157Z 16007KT 26/18 A3004 RMK A01 T02560182  RH  064%=      5-min Rain = 0
KTA1 110158Z 16009KT 26/18 A3004 RMK A01 T02560182  RH  063%=      5-min Rain = 0
KTA1 110159Z 16009KT 26/18 A3004 RMK A01 T02560180  RH  063%=      5-min Rain = 0
KTA1 110200Z 16008KT 26/18 A3004 RMK A01 T02560180  RH  063%=      5-min Rain = 0
KTA1 110201Z 16007KT 26/18 A3004 RMK A01 T02560180  RH  063%=      5-min Rain = 0
KTA1 110202Z 16008KT 26/18 A3004 RMK A01 T02560180  RH  063%=      5-min Rain = 0
KTA1 110203Z 15008KT 26/18 A3004 RMK A01 T02560179  RH  062%=      5-min Rain = 0
KTA1 110204Z 16008KT 26/18 A3004 RMK A01 T02560178  RH  062%=      5-min Rain = 0
KTA1 110205Z 16008KT 26/18 A3004 RMK A01 T02560177  RH  062%=      5-min Rain = 0
KTA1 110206Z 16009KT 26/18 A3004 RMK A01 T02560176  RH  061%=      5-min Rain = 0
KTA1 110207Z 16009KT 26/18 A3004 RMK A01 T02560176  RH  061%=      5-min Rain = 0
KTA1 110208Z 16009KT 26/18 A3004 RMK A01 T02560175  RH  061%=      5-min Rain = 0
KTA1 110209Z 16008KT 26/18 A3004 RMK A01 T02560175  RH  061%=      5-min Rain = 0
KTA1 110210Z 16007KT 26/18 A3004 RMK A01 T02570175  RH  061%=      5-min Rain = 0
KTA1 110211Z 16008KT 26/18 A3004 RMK A01 T02570175  RH  061%=      5-min Rain = 0
KTA1 110212Z 16007KT 26/18 A3004 RMK A01 T02570175  RH  061%=      5-min Rain = 0
KTA1 110213Z 16007KT 26/18 A3004 RMK A01 T02570175  RH  060%=      5-min Rain = 0
KTA1 110214Z 16008KT 26/17 A3004 RMK A01 T02560174  RH  060%=      5-min Rain = 0
KTA1 110215Z 16008KT 26/18 A3004 RMK A01 T02570175  RH  061%=      5-min Rain = 0
KTA1 110216Z 16008KT 26/17 A3004 RMK A01 T02560174  RH  061%=      5-min Rain = 0
KTA1 110217Z 15007KT 26/17 A3004 RMK A01 T02560174  RH  060%=      5-min Rain = 0
KTA1 110218Z 15006KT 26/17 A3004 RMK A01 T02560174  RH  060%=      5-min Rain = 0
KTA1 110219Z 16007KT 26/17 A3004 RMK A01 T02550173  RH  060%=      5-min Rain = 0
KTA1 110220Z 16008KT 26/17 A3004 RMK A01 T02560173  RH  060%=      5-min Rain = 0
KTA1 110221Z 15008KT 26/17 A3004 RMK A01 T02560173  RH  060%=      5-min Rain = 0
KTA1 110222Z 15007KT 26/17 A3004 RMK A01 T02550173  RH  060%=      5-min Rain = 0
KTA1 110223Z 15006KT 26/17 A3004 RMK A01 T02560173  RH  060%=      5-min Rain = 0
KTA1 110224Z 15005KT 26/17 A3004 RMK A01 T02550173  RH  060%=      5-min Rain = 0
KTA1 110225Z 15006KT 26/17 A3004 RMK A01 T02550173  RH  061%=      5-min Rain = 0
KTA1 110226Z 15007KT 25/17 A3004 RMK A01 T02540174  RH  061%=      5-min Rain = 0
KTA1 110227Z 15008KT 25/17 A3004 RMK A01 T02540173  RH  061%=      5-min Rain = 0
KTA1 110228Z 15007KT 25/17 A3004 RMK A01 T02540174  RH  061%=      5-min Rain = 0
KTA1 110229Z 15007KT 25/17 A3004 RMK A01 T02540174  RH  061%=      5-min Rain = 0
KTA1 110230Z 15007KT 25/17 A3005 RMK A01 T02540174  RH  061%=      5-min Rain = 0
KTA1 110231Z 15007KT 25/18 A3005 RMK A01 T02540175  RH  061%=      5-min Rain = 0
KTA1 110232Z 15008KT 25/18 A3005 RMK A01 T02540175  RH  062%=      5-min Rain = 0
KTA1 110233Z 15008KT 25/18 A3005 RMK A01 T02540175  RH  062%=      5-min Rain = 0
KTA1 110234Z 15006KT 25/18 A3005 RMK A01 T02540175  RH  062%=      5-min Rain = 0
KTA1 110235Z 15007KT 25/18 A3005 RMK A01 T02540176  RH  062%=      5-min Rain = 0
KTA1 110236Z 15008KT 25/18 A3005 RMK A01 T02540176  RH  062%=      5-min Rain = 0
KTA1 110237Z 15007KT 25/18 A3005 RMK A01 T02540176  RH  062%=      5-min Rain = 0
KTA1 110238Z 16006KT 25/18 A3005 RMK A01 T02540176  RH  062%=      5-min Rain = 0
KTA1 110239Z 16006G11KT 25/18 A3005 RMK A01 T02540177  RH  062%=      5-min Rain = 0
KTA1 110240Z 16008KT 25/18 A3005 RMK A01 T02540176  RH  062%=      5-min Rain = 0
KTA1 110241Z 16007KT 25/18 A3005 RMK A01 T02540176  RH  062%=      5-min Rain = 0
KTA1 110242Z 16008KT 25/18 A3005 RMK A01 T02540177  RH  062%=      5-min Rain = 0
KTA1 110243Z 16008KT 25/18 A3005 RMK A01 T02540177  RH  062%=      5-min Rain = 0
KTA1 110244Z 16008KT 25/18 A3005 RMK A01 T02540177  RH  062%=      5-min Rain = 0
KTA1 110245Z 16008KT 25/18 A3005 RMK A01 T02540177  RH  062%=      5-min Rain = 0
KTA1 110246Z 16007KT 25/18 A3005 RMK A01 T02540177  RH  062%=      5-min Rain = 0
KTA1 110247Z 16008KT 25/18 A3005 RMK A01 T02540177  RH  062%=      5-min Rain = 0
KTA1 110248Z 16009KT 25/18 A3005 RMK A01 T02540177  RH  062%=      5-min Rain = 0
KTA1 110249Z 16009KT 26/18 A3005 RMK A01 T02550177  RH  062%=      5-min Rain = 0
KTA1 110250Z 16008KT 26/18 A3006 RMK A01 T02550177  RH  062%=      5-min Rain = 0
KTA1 110251Z 16007KT 26/18 A3006 RMK A01 T02550178  RH  062%=      5-min Rain = 0
KTA1 110252Z 16007KT 26/18 A3006 RMK A01 T02550178  RH  063%=      5-min Rain = 0
KTA1 110253Z 16007KT 26/18 A3006 RMK A01 T02550179  RH  063%=      5-min Rain = 0
KTA1 110254Z 16007KT 26/18 A3006 RMK A01 T02550179  RH  063%=      5-min Rain = 0
KTA1 110255Z 16009KT 25/18 A3006 RMK A01 T02540178  RH  063%=      5-min Rain = 0
KTA1 110256Z 16008KT 25/18 A3006 RMK A01 T02540178  RH  063%=      5-min Rain = 0
KTA1 110257Z 16008KT 26/18 A3006 RMK A01 T02550179  RH  063%=      5-min Rain = 0
KTA1 110258Z 16007KT 26/18 A3006 RMK A01 T02550179  RH  063%=      5-min Rain = 0
KTA1 110259Z 16009KT 26/18 A3006 RMK A01 T02550179  RH  063%=      5-min Rain = 0
KTA1 110300Z 16007KT 26/18 A3006 RMK A01 T02550179  RH  063%=      5-min Rain = 0
KTA1 110301Z 16006KT 26/18 A3006 RMK A01 T02550180  RH  063%=      5-min Rain = 0
KTA1 110302Z 16008KT 26/18 A3006 RMK A01 T02550180  RH  063%=      5-min Rain = 0
KTA1 110303Z 16007KT 26/18 A3006 RMK A01 T02550180  RH  063%=      5-min Rain = 0
KTA1 110304Z 16008KT 26/18 A3006 RMK A01 T02550180  RH  063%=      5-min Rain = 0
KTA1 110305Z 16006KT 26/18 A3006 RMK A01 T02550180  RH  063%=      5-min Rain = 0
KTA1 110306Z 16007KT 26/18 A3006 RMK A01 T02550180  RH  063%=      5-min Rain = 0
KTA1 110307Z 15008KT 26/18 A3006 RMK A01 T02550181  RH  064%=      5-min Rain = 0
KTA1 110308Z 16008KT 25/18 A3006 RMK A01 T02540181  RH  064%=      5-min Rain = 0
KTA1 110309Z 16009KT 25/18 A3006 RMK A01 T02540181  RH  064%=      5-min Rain = 0
KTA1 110310Z 15007KT 25/18 A3006 RMK A01 T02540181  RH  064%=      5-min Rain = 0
KTA1 110311Z 16008KT 25/18 A3006 RMK A01 T02540181  RH  064%=      5-min Rain = 0
KTA1 110312Z 16008KT 25/18 A3006 RMK A01 T02540182  RH  064%=      5-min Rain = 0
KTA1 110313Z 16008KT 25/18 A3006 RMK A01 T02540182  RH  064%=      5-min Rain = 0
KTA1 110314Z 17008KT 25/18 A3006 RMK A01 T02540182  RH  064%=      5-min Rain = 0
KTA1 110315Z 16008KT 25/18 A3006 RMK A01 T02540182  RH  064%=      5-min Rain = 0
KTA1 110316Z 16008KT 25/18 A3006 RMK A01 T02540183  RH  064%=      5-min Rain = 0
KTA1 110317Z 16008KT 26/18 A3006 RMK A01 T02550183  RH  065%=      5-min Rain = 0
KTA1 110318Z 16008KT 26/18 A3006 RMK A01 T02550184  RH  065%=      5-min Rain = 0
KTA1 110319Z 16007KT 26/18 A3006 RMK A01 T02550184  RH  065%=      5-min Rain = 0
KTA1 110320Z 15006KT 25/18 A3006 RMK A01 T02540184  RH  065%=      5-min Rain = 0
KTA1 110321Z 15006KT 25/18 A3006 RMK A01 T02540184  RH  065%=      5-min Rain = 0
KTA1 110322Z 15005KT 25/18 A3006 RMK A01 T02540184  RH  065%=      5-min Rain = 0
KTA1 110323Z 14006KT 25/18 A3006 RMK A01 T02530184  RH  066%=      5-min Rain = 0
KTA1 110324Z 15006KT 25/18 A3006 RMK A01 T02530184  RH  066%=      5-min Rain = 0
KTA1 110325Z 15006KT 25/18 A3006 RMK A01 T02530184  RH  066%=      5-min Rain = 0
KTA1 110326Z 15006KT 25/18 A3006 RMK A01 T02520184  RH  066%=      5-min Rain = 0
KTA1 110327Z 15006KT 25/18 A3006 RMK A01 T02520184  RH  066%=      5-min Rain = 0
KTA1 110328Z 15006KT 25/18 A3006 RMK A01 T02520184  RH  066%=      5-min Rain = 0
KTA1 110329Z 15006KT 25/18 A3006 RMK A01 T02520184  RH  066%=      5-min Rain = 0
KTA1 110330Z 15005KT 25/19 A3006 RMK A01 T02520185  RH  066%=      5-min Rain = 0
KTA1 110331Z 16006KT 25/18 A3006 RMK A01 T02520184  RH  066%=      5-min Rain = 0
KTA1 110332Z 15007KT 25/19 A3006 RMK A01 T02510185  RH  066%=      5-min Rain = 0
KTA1 110333Z 15006KT 25/19 A3006 RMK A01 T02520185  RH  066%=      5-min Rain = 0
KTA1 110334Z 15006KT 25/19 A3006 RMK A01 T02510185  RH  067%=      5-min Rain = 0
KTA1 110335Z 15006KT 25/19 A3006 RMK A01 T02510185  RH  067%=      5-min Rain = 0
KTA1 110336Z 15005KT 25/19 A3006 RMK A01 T02510185  RH  067%=      5-min Rain = 0
KTA1 110337Z 15006KT 25/19 A3006 RMK A01 T02510186  RH  067%=      5-min Rain = 0
KTA1 110338Z 14006KT 25/19 A3006 RMK A01 T02510186  RH  067%=      5-min Rain = 0
KTA1 110339Z 15006KT 25/19 A3006 RMK A01 T02500185  RH  067%=      5-min Rain = 0
KTA1 110340Z 15007KT 25/19 A3006 RMK A01 T02500186  RH  067%=      5-min Rain = 0
KTA1 110341Z 15006KT 25/19 A3006 RMK A01 T02500186  RH  067%=      5-min Rain = 0
KTA1 110342Z 15007KT 25/19 A3006 RMK A01 T02500186  RH  068%=      5-min Rain = 0
KTA1 110343Z 15007KT 25/19 A3006 RMK A01 T02500186  RH  068%=      5-min Rain = 0
KTA1 110344Z 15007KT 25/19 A3006 RMK A01 T02500186  RH  068%=      5-min Rain = 0
KTA1 110345Z 15007KT 25/19 A3006 RMK A01 T02500186  RH  068%=      5-min Rain = 0
KTA1 110346Z 15007KT 25/19 A3006 RMK A01 T02500186  RH  068%=      5-min Rain = 0
KTA1 110347Z 15007KT 25/19 A3006 RMK A01 T02490186  RH  068%=      5-min Rain = 0
KTA1 110348Z 15007KT 25/19 A3006 RMK A01 T02500186  RH  068%=      5-min Rain = 0
KTA1 110349Z 15007KT 25/19 A3006 RMK A01 T02490186  RH  068%=      5-min Rain = 0
KTA1 110350Z 15007KT 25/19 A3006 RMK A01 T02490186  RH  068%=      5-min Rain = 0
KTA1 110351Z 15008KT 25/19 A3007 RMK A01 T02490187  RH  068%=      5-min Rain = 0
KTA1 110352Z 15007KT 25/19 A3006 RMK A01 T02490186  RH  068%=      5-min Rain = 0
KTA1 110353Z 15008KT 25/19 A3007 RMK A01 T02490186  RH  068%=      5-min Rain = 0
KTA1 110354Z 15008KT 25/19 A3007 RMK A01 T02490187  RH  068%=      5-min Rain = 0
KTA1 110355Z 15008KT 25/19 A3007 RMK A01 T02480186  RH  068%=      5-min Rain = 0
KTA1 110356Z 15008KT 25/19 A3006 RMK A01 T02480186  RH  068%=      5-min Rain = 0
KTA1 110357Z 15008KT 25/19 A3007 RMK A01 T02490187  RH  068%=      5-min Rain = 0
KTA1 110358Z 15008KT 25/19 A3007 RMK A01 T02480186  RH  068%=      5-min Rain = 0
KTA1 110359Z 15008KT 25/19 A3006 RMK A01 T02480187  RH  069%=      5-min Rain = 0
KTA1 110400Z 15007KT 25/19 A3007 RMK A01 T02480187  RH  069%=      5-min Rain = 0
KTA1 110401Z 15007KT 25/19 A3007 RMK A01 T02480187  RH  069%=      5-min Rain = 0
KTA1 110402Z 15008KT 25/19 A3007 RMK A01 T02480187  RH  069%=      5-min Rain = 0
KTA1 110403Z 15008KT 25/19 A3007 RMK A01 T02480187  RH  069%=      5-min Rain = 0
KTA1 110404Z 15008KT 25/19 A3007 RMK A01 T02480187  RH  069%=      5-min Rain = 0
KTA1 110405Z 15007KT 25/19 A3007 RMK A01 T02470187  RH  069%=      5-min Rain = 0
KTA1 110406Z 15008KT 25/19 A3007 RMK A01 T02470187  RH  069%=      5-min Rain = 0
KTA1 110407Z 15007KT 25/19 A3007 RMK A01 T02470187  RH  069%=      5-min Rain = 0
KTA1 110408Z 15008KT 25/19 A3007 RMK A01 T02470187  RH  069%=      5-min Rain = 0
KTA1 110409Z 15009KT 25/19 A3007 RMK A01 T02470187  RH  069%=      5-min Rain = 0
KTA1 110410Z 15009KT 25/19 A3007 RMK A01 T02470187  RH  069%=      5-min Rain = 0
KTA1 110411Z 15008KT 25/19 A3007 RMK A01 T02470187  RH  069%=      5-min Rain = 0
KTA1 110412Z 15008KT 25/19 A3007 RMK A01 T02470187  RH  069%=      5-min Rain = 0
KTA1 110413Z 15009KT 25/19 A3007 RMK A01 T02470187  RH  069%=      5-min Rain = 0
KTA1 110414Z 15009KT 25/19 A3007 RMK A01 T02470187  RH  069%=      5-min Rain = 0
KTA1 110415Z 15008KT 25/19 A3007 RMK A01 T02470187  RH  069%=      5-min Rain = 0
KTA1 110416Z 15008KT 25/19 A3007 RMK A01 T02470187  RH  069%=      5-min Rain = 0
KTA1 110417Z 15008KT 25/19 A3007 RMK A01 T02470187  RH  069%=      5-min Rain = 0
KTA1 110418Z 15008KT 25/19 A3007 RMK A01 T02460187  RH  069%=      5-min Rain = 0
KTA1 110419Z 15008KT 25/19 A3007 RMK A01 T02460187  RH  069%=      5-min Rain = 0
KTA1 110420Z 14007KT 25/19 A3007 RMK A01 T02460187  RH  069%=      5-min Rain = 0
KTA1 110421Z 15008KT 25/19 A3007 RMK A01 T02460187  RH  070%=      5-min Rain = 0
KTA1 110422Z 15008KT 25/19 A3007 RMK A01 T02460187  RH  070%=      5-min Rain = 0
KTA1 110423Z 14009KT 25/19 A3007 RMK A01 T02460187  RH  070%=      5-min Rain = 0
KTA1 110424Z 15007KT 25/19 A3007 RMK A01 T02450186  RH  070%=      5-min Rain = 0
KTA1 110425Z 15007KT 25/19 A3007 RMK A01 T02460187  RH  070%=      5-min Rain = 0
KTA1 110426Z 15008KT 25/19 A3007 RMK A01 T02460187  RH  070%=      5-min Rain = 0
KTA1 110427Z 15008KT 25/19 A3007 RMK A01 T02450186  RH  070%=      5-min Rain = 0
KTA1 110428Z 15006KT 25/19 A3007 RMK A01 T02450187  RH  070%=      5-min Rain = 0
KTA1 110429Z 15007KT 25/19 A3007 RMK A01 T02450186  RH  070%=      5-min Rain = 0
KTA1 110430Z 15006KT 25/19 A3007 RMK A01 T02450186  RH  070%=      5-min Rain = 0
KTA1 110431Z 14007KT 24/19 A3007 RMK A01 T02440186  RH  070%=      5-min Rain = 0
KTA1 110432Z 15006KT 24/19 A3007 RMK A01 T02440186  RH  070%=      5-min Rain = 0
KTA1 110433Z 14006KT 24/19 A3007 RMK A01 T02440186  RH  070%=      5-min Rain = 0
KTA1 110434Z 15008KT 24/19 A3007 RMK A01 T02430186  RH  070%=      5-min Rain = 0
KTA1 110435Z 15008KT 24/19 A3007 RMK A01 T02430186  RH  070%=      5-min Rain = 0
KTA1 110436Z 14006KT 24/19 A3007 RMK A01 T02430186  RH  070%=      5-min Rain = 0
KTA1 110437Z 15010KT 24/19 A3007 RMK A01 T02430186  RH  070%=      5-min Rain = 0
KTA1 110438Z 15007KT 24/19 A3007 RMK A01 T02430185  RH  070%=      5-min Rain = 0
KTA1 110439Z 15008KT 24/19 A3007 RMK A01 T02430185  RH  070%=      5-min Rain = 0
KTA1 110440Z 15007KT 24/19 A3007 RMK A01 T02430186  RH  071%=      5-min Rain = 0
KTA1 110441Z 14007KT 24/19 A3007 RMK A01 T02420186  RH  071%=      5-min Rain = 0
KTA1 110442Z 15008KT 24/19 A3007 RMK A01 T02420186  RH  071%=      5-min Rain = 0
KTA1 110443Z 15007KT 24/19 A3007 RMK A01 T02410186  RH  071%=      5-min Rain = 0
KTA1 110444Z 15008KT 24/19 A3007 RMK A01 T02410186  RH  071%=      5-min Rain = 0
KTA1 110445Z 15009KT 24/19 A3007 RMK A01 T02410186  RH  071%=      5-min Rain = 0
KTA1 110446Z 15008KT 24/19 A3008 RMK A01 T02410186  RH  071%=      5-min Rain = 0
KTA1 110447Z 15008KT 24/19 A3008 RMK A01 T02410186  RH  071%=      5-min Rain = 0
KTA1 110448Z 15009KT 24/19 A3008 RMK A01 T02410186  RH  071%=      5-min Rain = 0
KTA1 110449Z 16009KT 24/19 A3007 RMK A01 T02410185  RH  071%=      5-min Rain = 0
KTA1 110450Z 15009KT 24/19 A3007 RMK A01 T02410185  RH  071%=      5-min Rain = 0
KTA1 110451Z 16008KT 24/19 A3007 RMK A01 T02410185  RH  071%=      5-min Rain = 0
KTA1 110452Z 16010KT 24/19 A3007 RMK A01 T02410185  RH  071%=      5-min Rain = 0
KTA1 110453Z 15009KT 24/18 A3007 RMK A01 T02410184  RH  071%=      5-min Rain = 0
KTA1 110454Z 16010KT 24/18 A3007 RMK A01 T02410184  RH  070%=      5-min Rain = 0
KTA1 110455Z 15009KT 24/18 A3007 RMK A01 T02410184  RH  070%=      5-min Rain = 0
KTA1 110456Z 16009KT 24/18 A3007 RMK A01 T02410184  RH  070%=      5-min Rain = 0
KTA1 110457Z 15010KT 24/18 A3007 RMK A01 T02410184  RH  070%=      5-min Rain = 0
KTA1 110458Z 15010KT 24/18 A3007 RMK A01 T02400183  RH  070%=      5-min Rain = 0
KTA1 110459Z 15011KT 24/18 A3007 RMK A01 T02410183  RH  070%=      5-min Rain = 0

Page generated in 0.1414 seconds.